Time,TemperatureF,DewpointF,PressureIn,WindDirection,WindDirectionDegrees,WindSpeedMPH,WindSpeedGustMPH,Humidity,HourlyPrecipIn,Conditions,Clouds,dailyrainin,SoftwareType,DateUTC
2013-06-15 00:00:00,77.2,72.1,30.00,SE,146,2.8,4.1,84,0.00,,CLR,0.00,VWS V14.01,2013-06-15 05:00:00,
2013-06-15 00:02:00,77.2,72.1,30.00,SE,146,0.0,0.0,84,0.00,,CLR,0.00,VWS V14.01,2013-06-15 05:02:00,
2013-06-15 00:04:00,77.2,72.1,30.00,SE,146,2.8,2.9,84,0.00,,CLR,0.00,VWS V14.01,2013-06-15 05:04:00,
2013-06-15 00:06:00,77.0,72.0,30.00,East,91,3.3,4.1,84,0.00,,CLR,0.00,VWS V14.01,2013-06-15 05:06:00,
2013-06-15 00:07:00,77.0,72.0,30.00,ESE,120,0.0,5.2,84,0.00,,CLR,0.00,VWS V14.01,2013-06-15 05:07:00,
2013-06-15 00:08:00,77.0,72.0,30.00,ESE,110,2.8,5.2,84,0.00,,CLR,0.00,VWS V14.01,2013-06-15 05:08:00,
2013-06-15 00:10:00,76.8,71.8,30.00,ESE,112,3.3,4.1,84,0.00,,CLR,0.00,VWS V14.01,2013-06-15 05:10:00,
2013-06-15 00:12:00,76.8,72.2,30.00,SE,125,3.3,6.4,86,0.00,,CLR,0.00,VWS V14.01,2013-06-15 05:12:00,
2013-06-15 00:14:00,76.8,72.2,30.00,SE,145,2.8,7.0,86,0.00,,CLR,0.00,VWS V14.01,2013-06-15 05:14:00,
2013-06-15 00:16:00,76.8,72.2,30.00,East,88,0.0,2.9,86,0.00,,CLR,0.00,VWS V14.01,2013-06-15 05:16:00,
2013-06-15 00:17:00,76.6,72.1,30.00,ESE,120,2.8,5.2,86,0.00,,CLR,0.00,VWS V14.01,2013-06-15 05:17:00,
2013-06-15 00:18:00,76.6,72.1,30.00,ESE,120,0.0,5.2,86,0.00,,CLR,0.00,VWS V14.01,2013-06-15 05:18:00,
2013-06-15 00:20:00,76.6,72.1,30.00,SE,139,5.0,5.2,86,0.00,,CLR,0.00,VWS V14.01,2013-06-15 05:20:00,
2013-06-15 00:22:00,76.6,72.1,30.00,ESE,116,2.8,10.5,86,0.00,,CLR,0.00,VWS V14.01,2013-06-15 05:22:00,
2013-06-15 00:24:00,76.6,72.1,30.00,SE,129,5.0,5.2,86,0.00,,CLR,0.00,VWS V14.01,2013-06-15 05:24:00,
2013-06-15 00:26:00,76.8,72.2,30.00,SE,128,0.0,5.2,86,0.00,,CLR,0.00,VWS V14.01,2013-06-15 05:26:00,
2013-06-15 00:27:00,76.6,72.1,30.00,SSE,159,0.0,6.4,86,0.00,,CLR,0.00,VWS V14.01,2013-06-15 05:27:00,
2013-06-15 00:28:00,76.6,72.1,30.00,SSE,159,0.0,6.4,86,0.00,,CLR,0.00,VWS V14.01,2013-06-15 05:28:00,
2013-06-15 00:30:00,76.6,72.1,30.00,SSE,164,6.7,7.0,86,0.00,,CLR,0.00,VWS V14.01,2013-06-15 05:30:00,
2013-06-15 00:32:00,76.6,72.1,30.00,SSE,154,2.8,4.7,86,0.00,,CLR,0.00,VWS V14.01,2013-06-15 05:32:00,
2013-06-15 00:34:00,76.6,72.1,30.00,South,184,4.4,6.4,86,0.00,,CLR,0.00,VWS V14.01,2013-06-15 05:34:00,
2013-06-15 00:36:00,76.6,72.1,30.00,East,101,3.3,8.1,86,0.00,,CLR,0.00,VWS V14.01,2013-06-15 05:36:00,
2013-06-15 00:37:00,76.6,72.1,30.00,ENE,61,5.0,8.1,86,0.00,,CLR,0.00,VWS V14.01,2013-06-15 05:37:00,
2013-06-15 00:38:00,76.6,72.1,30.00,SSE,148,4.4,5.2,86,0.00,,CLR,0.00,VWS V14.01,2013-06-15 05:38:00,
2013-06-15 00:40:00,76.6,72.1,30.00,SSE,155,0.0,8.1,86,0.00,,CLR,0.00,VWS V14.01,2013-06-15 05:40:00,
2013-06-15 00:42:00,76.6,71.6,30.00,SE,144,3.9,6.4,84,0.00,,BKN043,0.00,VWS V14.01,2013-06-15 05:42:00,
2013-06-15 00:44:00,76.6,71.6,30.00,SE,138,2.8,5.2,84,0.00,,CLR,0.00,VWS V14.01,2013-06-15 05:44:00,
2013-06-15 00:46:00,76.6,71.6,30.00,SSE,151,0.0,3.5,84,0.00,,CLR,0.00,VWS V14.01,2013-06-15 05:46:00,
2013-06-15 00:48:00,76.6,71.6,30.00,SE,137,3.3,4.1,84,0.00,,BKN043,0.00,VWS V14.01,2013-06-15 05:48:00,
2013-06-15 00:50:00,76.6,71.6,30.00,SSE,158,4.4,8.1,84,0.00,,CLR,0.00,VWS V14.01,2013-06-15 05:50:00,
2013-06-15 00:52:00,76.6,71.6,30.00,ESE,111,4.4,7.6,84,0.00,,BKN043,0.00,VWS V14.01,2013-06-15 05:52:00,
2013-06-15 00:54:00,76.6,71.6,30.00,SSE,156,6.1,7.6,84,0.00,,CLR,0.00,VWS V14.01,2013-06-15 05:54:00,
2013-06-15 00:56:00,76.6,71.6,30.00,ESE,121,3.9,6.4,84,0.00,,CLR,0.00,VWS V14.01,2013-06-15 05:56:00,
2013-06-15 00:58:00,76.6,71.6,30.00,ESE,123,2.8,5.2,84,0.00,,BKN043,0.00,VWS V14.01,2013-06-15 05:58:00,
2013-06-15 01:00:00,76.5,71.4,30.00,ESE,113,4.4,4.7,84,0.00,,CLR,0.00,VWS V14.01,2013-06-15 06:00:00,
2013-06-15 01:02:00,76.5,71.4,30.00,ESE,121,5.0,9.9,84,0.00,,CLR,0.00,VWS V14.01,2013-06-15 06:02:00,
2013-06-15 01:03:00,76.5,71.4,30.00,SE,141,3.9,9.9,84,0.00,,BKN043,0.00,VWS V14.01,2013-06-15 06:03:00,
2013-06-15 01:04:00,76.5,71.4,30.00,SSE,154,5.0,7.6,84,0.00,,CLR,0.00,VWS V14.01,2013-06-15 06:04:00,
2013-06-15 01:06:00,76.3,71.3,30.00,NE,54,3.9,8.1,84,0.00,,CLR,0.00,VWS V14.01,2013-06-15 06:06:00,
2013-06-15 01:08:00,76.3,70.8,30.00,SE,131,5.0,5.2,83,0.00,,BKN043,0.00,VWS V14.01,2013-06-15 06:08:00,
2013-06-15 01:10:00,76.3,70.8,30.00,ESE,121,3.3,5.2,83,0.00,,CLR,0.00,VWS V14.01,2013-06-15 06:10:00,
2013-06-15 01:12:00,76.1,70.6,30.00,South,177,6.1,6.4,83,0.00,,CLR,0.00,VWS V14.01,2013-06-15 06:12:00,
2013-06-15 01:13:00,76.1,70.6,30.00,SE,135,0.0,6.4,83,0.00,,BKN043,0.00,VWS V14.01,2013-06-15 06:13:00,
2013-06-15 01:14:00,76.1,71.1,30.00,SSE,148,7.2,7.6,84,0.00,,CLR,0.00,VWS V14.01,2013-06-15 06:14:00,
2013-06-15 01:16:00,76.1,71.1,30.00,SE,124,0.0,7.6,84,0.00,,CLR,0.00,VWS V14.01,2013-06-15 06:16:00,
2013-06-15 01:18:00,75.9,70.4,30.00,ESE,118,0.0,4.1,83,0.00,,SCT050,0.00,VWS V14.01,2013-06-15 06:18:00,
2013-06-15 01:20:00,75.9,70.4,30.00,SSE,158,3.9,5.2,83,0.00,,CLR,0.00,VWS V14.01,2013-06-15 06:20:00,
2013-06-15 01:22:00,75.7,70.7,30.00,SE,129,3.9,7.0,84,0.00,,CLR,0.00,VWS V14.01,2013-06-15 06:22:00,
2013-06-15 01:23:00,75.7,70.7,30.00,ESE,121,3.9,7.0,84,0.00,,SCT050,0.00,VWS V14.01,2013-06-15 06:23:00,
2013-06-15 01:24:00,75.7,70.7,30.00,ESE,104,3.3,5.2,84,0.00,,CLR,0.00,VWS V14.01,2013-06-15 06:24:00,
2013-06-15 01:26:00,75.7,70.7,30.00,SSE,162,4.4,7.0,84,0.00,,CLR,0.00,VWS V14.01,2013-06-15 06:26:00,
2013-06-15 01:28:00,75.7,70.7,30.00,SSE,156,0.0,7.0,84,0.00,,SCT050,0.00,VWS V14.01,2013-06-15 06:28:00,
2013-06-15 01:30:00,75.7,70.7,30.00,SSE,152,7.2,7.6,84,0.00,,CLR,0.00,VWS V14.01,2013-06-15 06:30:00,
2013-06-15 01:32:00,75.6,70.6,30.00,SE,146,6.7,8.1,84,0.00,,CLR,0.00,VWS V14.01,2013-06-15 06:32:00,
2013-06-15 01:33:00,75.6,70.6,30.00,SSE,155,3.3,8.1,84,0.00,,SCT050,0.00,VWS V14.01,2013-06-15 06:33:00,
2013-06-15 01:34:00,75.6,70.6,30.00,SSE,148,4.4,7.0,84,0.00,,CLR,0.00,VWS V14.01,2013-06-15 06:34:00,
2013-06-15 01:36:00,75.6,70.6,30.00,South,181,3.9,7.0,84,0.00,,CLR,0.00,VWS V14.01,2013-06-15 06:36:00,
2013-06-15 01:38:00,75.6,70.6,30.00,SSE,155,0.0,4.7,84,0.00,,FEW040,0.00,VWS V14.01,2013-06-15 06:38:00,
2013-06-15 01:40:00,75.6,70.6,30.00,ESE,116,9.4,9.9,84,0.00,,CLR,0.00,VWS V14.01,2013-06-15 06:40:00,
2013-06-15 01:42:00,75.4,70.4,30.00,SE,138,0.0,9.9,84,0.00,,CLR,0.00,VWS V14.01,2013-06-15 06:42:00,
2013-06-15 01:43:00,75.4,70.4,30.00,SSW,199,0.0,3.5,84,0.00,,FEW040,0.00,VWS V14.01,2013-06-15 06:43:00,
2013-06-15 01:44:00,75.4,70.4,30.00,East,83,4.4,4.7,84,0.00,,CLR,0.00,VWS V14.01,2013-06-15 06:44:00,
2013-06-15 01:46:00,75.2,70.2,30.00,SSE,153,3.3,6.4,84,0.00,,CLR,0.00,VWS V14.01,2013-06-15 06:46:00,
2013-06-15 01:48:00,75.2,70.2,30.00,SE,139,4.4,6.4,84,0.00,,FEW040,0.00,VWS V14.01,2013-06-15 06:48:00,
2013-06-15 01:50:00,75.2,70.2,30.00,SE,136,6.1,6.4,84,0.00,,CLR,0.00,VWS V14.01,2013-06-15 06:50:00,
2013-06-15 01:52:00,75.2,70.2,30.00,ESE,110,0.0,4.7,84,0.00,,CLR,0.00,VWS V14.01,2013-06-15 06:52:00,
2013-06-15 01:53:00,75.2,70.2,30.00,SSE,148,3.3,4.1,84,0.00,,FEW040,0.00,VWS V14.01,2013-06-15 06:53:00,
2013-06-15 01:54:00,75.2,70.2,30.00,ESE,110,0.0,4.1,84,0.00,,CLR,0.00,VWS V14.01,2013-06-15 06:54:00,
2013-06-15 01:56:00,75.2,70.2,30.00,SE,142,3.3,5.2,84,0.00,,CLR,0.00,VWS V14.01,2013-06-15 06:56:00,
2013-06-15 01:58:00,75.2,69.7,30.00,SE,140,3.3,7.0,83,0.00,,CLR,0.00,VWS V14.01,2013-06-15 06:58:00,
2013-06-15 02:00:00,75.2,69.7,30.00,SSE,151,2.8,6.4,83,0.00,,CLR,0.00,VWS V14.01,2013-06-15 07:00:00,
2013-06-15 02:02:00,75.2,69.7,30.00,SE,124,3.3,4.7,83,0.00,,CLR,0.00,VWS V14.01,2013-06-15 07:02:00,
2013-06-15 02:03:00,75.2,69.7,30.00,ESE,121,5.0,5.2,83,0.00,,CLR,0.00,VWS V14.01,2013-06-15 07:03:00,
2013-06-15 02:04:00,75.0,70.0,30.00,SSE,164,3.3,5.2,84,0.00,,CLR,0.00,VWS V14.01,2013-06-15 07:04:00,
2013-06-15 02:06:00,75.0,70.0,30.00,ESE,107,5.0,5.2,84,0.00,,CLR,0.00,VWS V14.01,2013-06-15 07:06:00,
2013-06-15 02:08:00,75.0,70.0,30.00,ESE,120,4.4,8.1,84,0.00,,CLR,0.00,VWS V14.01,2013-06-15 07:08:00,
2013-06-15 02:10:00,74.8,69.4,30.00,South,172,0.0,6.4,83,0.00,,CLR,0.00,VWS V14.01,2013-06-15 07:10:00,
2013-06-15 02:12:00,74.8,69.4,30.00,SE,142,3.9,4.1,83,0.00,,CLR,0.00,VWS V14.01,2013-06-15 07:12:00,
2013-06-15 02:13:00,74.8,69.4,30.00,SE,138,3.3,4.1,83,0.00,,CLR,0.00,VWS V14.01,2013-06-15 07:13:00,
2013-06-15 02:14:00,74.8,69.4,30.00,SSE,162,2.8,5.2,83,0.00,,CLR,0.00,VWS V14.01,2013-06-15 07:14:00,
2013-06-15 02:16:00,74.8,69.4,30.00,SSE,167,3.9,6.4,83,0.00,,CLR,0.00,VWS V14.01,2013-06-15 07:16:00,
2013-06-15 02:18:00,74.7,69.2,30.00,SE,144,3.9,7.6,83,0.00,,CLR,0.00,VWS V14.01,2013-06-15 07:18:00,
2013-06-15 02:20:00,74.7,69.2,30.00,SE,145,3.3,7.6,83,0.00,,CLR,0.00,VWS V14.01,2013-06-15 07:20:00,
2013-06-15 02:22:00,74.7,69.2,30.00,SE,127,2.8,7.6,83,0.00,,CLR,0.00,VWS V14.01,2013-06-15 07:22:00,
2013-06-15 02:23:00,74.7,69.7,30.00,ESE,122,3.3,7.6,84,0.00,,CLR,0.00,VWS V14.01,2013-06-15 07:23:00,
2013-06-15 02:24:00,74.7,69.7,30.00,ESE,109,3.9,4.7,84,0.00,,CLR,0.00,VWS V14.01,2013-06-15 07:24:00,
2013-06-15 02:26:00,74.7,69.7,30.00,SE,136,3.3,5.2,84,0.00,,CLR,0.00,VWS V14.01,2013-06-15 07:26:00,
2013-06-15 02:28:00,74.7,69.2,30.00,SSW,196,5.0,7.6,83,0.00,,CLR,0.00,VWS V14.01,2013-06-15 07:28:00,
2013-06-15 02:30:00,74.7,69.2,30.00,SSE,149,0.0,7.6,83,0.00,,CLR,0.00,VWS V14.01,2013-06-15 07:30:00,
2013-06-15 02:32:00,74.7,69.2,30.00,ESE,120,2.8,4.7,83,0.00,,CLR,0.00,VWS V14.01,2013-06-15 07:32:00,
2013-06-15 02:33:00,74.7,69.2,30.00,SE,143,0.0,4.7,83,0.00,,CLR,0.00,VWS V14.01,2013-06-15 07:33:00,
2013-06-15 02:34:00,74.7,69.2,30.00,SE,135,0.0,4.7,83,0.00,,CLR,0.00,VWS V14.01,2013-06-15 07:34:00,
2013-06-15 02:36:00,74.5,69.0,30.00,East,99,3.3,4.1,83,0.00,,CLR,0.00,VWS V14.01,2013-06-15 07:36:00,
2013-06-15 02:38:00,74.5,69.0,30.00,SE,130,0.0,4.7,83,0.00,,CLR,0.00,VWS V14.01,2013-06-15 07:38:00,
2013-06-15 02:40:00,74.5,69.0,30.00,SSE,151,5.0,7.0,83,0.00,,CLR,0.00,VWS V14.01,2013-06-15 07:40:00,
2013-06-15 02:42:00,74.5,69.0,30.00,SSE,158,4.4,6.4,83,0.00,,CLR,0.00,VWS V14.01,2013-06-15 07:42:00,
2013-06-15 02:43:00,74.5,69.0,30.00,SSE,160,0.0,4.7,83,0.00,,CLR,0.00,VWS V14.01,2013-06-15 07:43:00,
2013-06-15 02:44:00,74.5,69.0,30.00,SSE,149,2.8,4.7,83,0.00,,CLR,0.00,VWS V14.01,2013-06-15 07:44:00,
2013-06-15 02:46:00,74.5,69.0,30.00,South,173,4.4,7.0,83,0.00,,CLR,0.00,VWS V14.01,2013-06-15 07:46:00,
2013-06-15 02:48:00,74.5,69.0,30.00,ESE,118,4.4,7.0,83,0.00,,CLR,0.00,VWS V14.01,2013-06-15 07:48:00,
2013-06-15 02:49:00,74.3,68.9,30.00,SSE,155,0.0,7.0,83,0.00,,CLR,0.00,VWS V14.01,2013-06-15 07:49:00,
2013-06-15 02:50:00,74.3,68.9,30.00,SE,139,2.8,7.0,83,0.00,,CLR,0.00,VWS V14.01,2013-06-15 07:50:00,
2013-06-15 02:52:00,74.3,68.4,30.00,SE,131,2.8,4.1,82,0.00,,CLR,0.00,VWS V14.01,2013-06-15 07:52:00,
2013-06-15 02:54:00,74.3,68.4,30.00,SSE,153,0.0,6.4,82,0.00,,CLR,0.00,VWS V14.01,2013-06-15 07:54:00,
2013-06-15 02:56:00,74.3,68.4,30.00,ESE,119,2.8,4.7,82,0.00,,CLR,0.00,VWS V14.01,2013-06-15 07:56:00,
2013-06-15 02:58:00,74.3,68.4,30.00,SSE,160,0.0,5.2,82,0.00,,CLR,0.00,VWS V14.01,2013-06-15 07:58:00,
2013-06-15 02:59:00,74.3,68.4,30.00,ESE,118,5.0,5.2,82,0.00,,CLR,0.00,VWS V14.01,2013-06-15 07:59:00,
2013-06-15 03:00:00,74.3,68.4,30.00,SE,145,3.3,5.2,82,0.00,,CLR,0.00,VWS V14.01,2013-06-15 08:00:00,
2013-06-15 03:02:00,74.3,68.4,30.00,SSE,150,6.7,7.0,82,0.00,,CLR,0.00,VWS V14.01,2013-06-15 08:02:00,
2013-06-15 03:04:00,74.1,68.2,30.00,SE,133,3.9,7.0,82,0.00,,CLR,0.00,VWS V14.01,2013-06-15 08:04:00,
2013-06-15 03:06:00,74.1,68.2,30.00,SE,124,0.0,5.2,82,0.00,,CLR,0.00,VWS V14.01,2013-06-15 08:06:00,
2013-06-15 03:08:00,74.1,68.2,30.00,SSE,147,0.0,4.1,82,0.00,,CLR,0.00,VWS V14.01,2013-06-15 08:08:00,
2013-06-15 03:09:00,74.1,68.2,30.00,East,86,0.0,3.5,82,0.00,,CLR,0.00,VWS V14.01,2013-06-15 08:09:00,
2013-06-15 03:10:00,74.1,68.2,30.00,SE,130,2.8,5.2,82,0.00,,CLR,0.00,VWS V14.01,2013-06-15 08:10:00,
2013-06-15 03:12:00,74.1,68.2,30.00,SSE,158,3.9,4.1,82,0.00,,CLR,0.00,VWS V14.01,2013-06-15 08:12:00,
2013-06-15 03:14:00,74.1,68.2,30.00,SSE,156,3.3,4.1,82,0.00,,CLR,0.00,VWS V14.01,2013-06-15 08:14:00,
2013-06-15 03:16:00,73.9,68.1,30.00,East,96,0.0,4.7,82,0.00,,CLR,0.00,VWS V14.01,2013-06-15 08:16:00,
2013-06-15 03:18:00,73.9,68.1,30.00,ENE,65,0.0,3.5,82,0.00,,CLR,0.00,VWS V14.01,2013-06-15 08:18:00,
2013-06-15 03:19:00,73.9,68.1,30.00,SSE,159,3.3,3.5,82,0.00,,CLR,0.00,VWS V14.01,2013-06-15 08:19:00,
2013-06-15 03:20:00,73.9,68.1,30.00,ESE,117,5.0,5.2,82,0.00,,CLR,0.00,VWS V14.01,2013-06-15 08:20:00,
2013-06-15 03:22:00,73.8,67.9,30.00,SSE,166,0.0,5.2,82,0.00,,CLR,0.00,VWS V14.01,2013-06-15 08:22:00,
2013-06-15 03:24:00,73.8,67.9,30.00,SE,139,3.3,3.5,82,0.00,,CLR,0.00,VWS V14.01,2013-06-15 08:24:00,
2013-06-15 03:26:00,73.8,67.9,30.00,ESE,117,4.4,4.7,82,0.00,,CLR,0.00,VWS V14.01,2013-06-15 08:26:00,
2013-06-15 03:28:00,73.8,67.9,30.00,East,80,2.8,6.4,82,0.00,,CLR,0.00,VWS V14.01,2013-06-15 08:28:00,
2013-06-15 03:29:00,73.8,67.9,30.00,ESE,119,6.7,7.0,82,0.00,,CLR,0.00,VWS V14.01,2013-06-15 08:29:00,
2013-06-15 03:30:00,73.8,67.9,30.00,ESE,102,4.4,7.0,82,0.00,,CLR,0.00,VWS V14.01,2013-06-15 08:30:00,
2013-06-15 03:32:00,73.8,67.9,30.00,ENE,76,3.3,4.7,82,0.00,,CLR,0.00,VWS V14.01,2013-06-15 08:32:00,
2013-06-15 03:34:00,73.8,67.9,30.00,ESE,123,3.9,4.1,82,0.00,,CLR,0.00,VWS V14.01,2013-06-15 08:34:00,
2013-06-15 03:36:00,73.8,67.9,30.00,SE,144,0.0,4.7,82,0.00,,CLR,0.00,VWS V14.01,2013-06-15 08:36:00,
2013-06-15 03:38:00,73.8,67.9,30.00,ESE,107,0.0,0.0,82,0.00,,CLR,0.00,VWS V14.01,2013-06-15 08:38:00,
2013-06-15 03:39:00,73.8,67.9,30.00,ESE,113,0.0,0.0,82,0.00,,CLR,0.00,VWS V14.01,2013-06-15 08:39:00,
2013-06-15 03:40:00,73.6,67.7,30.00,ESE,113,0.0,0.0,82,0.00,,CLR,0.00,VWS V14.01,2013-06-15 08:40:00,
2013-06-15 03:42:00,73.6,67.7,30.00,ENE,74,0.0,5.2,82,0.00,,CLR,0.00,VWS V14.01,2013-06-15 08:42:00,
2013-06-15 03:44:00,73.4,67.5,30.00,ENE,63,0.0,4.1,82,0.00,,CLR,0.00,VWS V14.01,2013-06-15 08:44:00,
2013-06-15 03:46:00,73.4,67.5,30.00,SE,124,2.8,4.7,82,0.00,,CLR,0.00,VWS V14.01,2013-06-15 08:46:00,
2013-06-15 03:48:00,73.4,67.5,30.00,East,81,3.3,6.4,82,0.00,,CLR,0.00,VWS V14.01,2013-06-15 08:48:00,
2013-06-15 03:49:00,73.4,67.5,30.00,ESE,106,0.0,4.7,82,0.00,,CLR,0.00,VWS V14.01,2013-06-15 08:49:00,
2013-06-15 03:50:00,73.4,67.5,30.00,East,96,3.3,7.0,82,0.00,,CLR,0.00,VWS V14.01,2013-06-15 08:50:00,
2013-06-15 03:52:00,73.2,67.3,30.00,ESE,111,3.3,5.2,82,0.00,,CLR,0.00,VWS V14.01,2013-06-15 08:52:00,
2013-06-15 03:54:00,73.2,67.3,30.00,SE,138,4.4,4.7,82,0.00,,CLR,0.00,VWS V14.01,2013-06-15 08:54:00,
2013-06-15 03:56:00,73.2,67.3,30.00,ESE,119,2.8,5.2,82,0.00,,CLR,0.00,VWS V14.01,2013-06-15 08:56:00,
2013-06-15 03:58:00,73.2,67.3,30.00,SE,144,0.0,6.4,82,0.00,,CLR,0.00,VWS V14.01,2013-06-15 08:58:00,
2013-06-15 03:59:00,73.2,67.3,30.00,SE,146,0.0,6.4,82,0.00,,CLR,0.00,VWS V14.01,2013-06-15 08:59:00,
2013-06-15 04:00:00,73.2,67.3,30.00,SE,133,5.0,5.2,82,0.00,,CLR,0.00,VWS V14.01,2013-06-15 09:00:00,
2013-06-15 04:02:00,73.2,67.3,30.00,ESE,109,0.0,8.1,82,0.00,,CLR,0.00,VWS V14.01,2013-06-15 09:02:00,
2013-06-15 04:04:00,73.0,67.2,30.00,South,188,0.0,4.1,82,0.00,,CLR,0.00,VWS V14.01,2013-06-15 09:04:00,
2013-06-15 04:06:00,73.0,67.2,30.00,South,173,3.3,3.5,82,0.00,,CLR,0.00,VWS V14.01,2013-06-15 09:06:00,
2013-06-15 04:08:00,73.0,67.2,30.00,SSE,160,0.0,5.2,82,0.00,,CLR,0.00,VWS V14.01,2013-06-15 09:08:00,
2013-06-15 04:09:00,73.0,67.2,30.00,SSE,160,0.0,0.0,82,0.00,,CLR,0.00,VWS V14.01,2013-06-15 09:09:00,
2013-06-15 04:10:00,73.0,67.2,30.00,SSE,160,0.0,0.0,82,0.00,,CLR,0.00,VWS V14.01,2013-06-15 09:10:00,
2013-06-15 04:12:00,72.9,67.0,30.00,South,170,4.4,4.7,82,0.00,,CLR,0.00,VWS V14.01,2013-06-15 09:12:00,
2013-06-15 04:14:00,72.9,67.0,30.00,ESE,111,3.9,4.7,82,0.00,,CLR,0.00,VWS V14.01,2013-06-15 09:14:00,
2013-06-15 04:15:00,72.9,67.0,30.00,ESE,108,3.3,6.4,82,0.00,,CLR,0.00,VWS V14.01,2013-06-15 09:15:00,
2013-06-15 04:16:00,72.9,67.0,30.00,ESE,115,0.0,6.4,82,0.00,,CLR,0.00,VWS V14.01,2013-06-15 09:16:00,
2013-06-15 04:18:00,72.9,67.0,30.00,SSE,163,0.0,2.9,82,0.00,,CLR,0.00,VWS V14.01,2013-06-15 09:18:00,
2013-06-15 04:20:00,72.9,67.0,30.00,SSE,163,0.0,0.0,82,0.00,,CLR,0.00,VWS V14.01,2013-06-15 09:20:00,
2013-06-15 04:22:00,72.9,67.0,30.00,SE,132,0.0,4.1,82,0.00,,CLR,0.00,VWS V14.01,2013-06-15 09:22:00,
2013-06-15 04:24:00,72.9,67.0,30.00,ESE,119,3.3,4.1,82,0.00,,CLR,0.00,VWS V14.01,2013-06-15 09:24:00,
2013-06-15 04:25:00,72.9,67.0,30.00,ESE,109,4.4,4.7,82,0.00,,CLR,0.00,VWS V14.01,2013-06-15 09:25:00,
2013-06-15 04:26:00,72.9,67.0,30.00,ESE,111,0.0,4.7,82,0.00,,CLR,0.00,VWS V14.01,2013-06-15 09:26:00,
2013-06-15 04:28:00,72.9,67.0,30.00,SE,126,2.8,4.1,82,0.00,,CLR,0.00,VWS V14.01,2013-06-15 09:28:00,
2013-06-15 04:30:00,72.9,67.0,30.00,SSE,149,4.4,4.7,82,0.00,,CLR,0.00,VWS V14.01,2013-06-15 09:30:00,
2013-06-15 04:32:00,72.9,67.0,30.00,ESE,111,3.9,7.0,82,0.00,,CLR,0.00,VWS V14.01,2013-06-15 09:32:00,
2013-06-15 04:34:00,73.0,67.2,30.00,SSE,155,7.8,8.1,82,0.00,,CLR,0.00,VWS V14.01,2013-06-15 09:34:00,
2013-06-15 04:35:00,73.0,67.2,30.00,South,181,3.3,8.1,82,0.00,,CLR,0.00,VWS V14.01,2013-06-15 09:35:00,
2013-06-15 04:36:00,73.0,67.2,30.00,ESE,119,3.9,8.1,82,0.00,,CLR,0.00,VWS V14.01,2013-06-15 09:36:00,
2013-06-15 04:38:00,73.0,67.2,30.00,SSE,154,2.8,5.2,82,0.00,,CLR,0.00,VWS V14.01,2013-06-15 09:38:00,
2013-06-15 04:40:00,73.0,67.2,30.00,South,173,3.9,6.4,82,0.00,,CLR,0.00,VWS V14.01,2013-06-15 09:40:00,
2013-06-15 04:42:00,73.0,67.2,30.00,South,182,5.0,7.6,82,0.00,,CLR,0.00,VWS V14.01,2013-06-15 09:42:00,
2013-06-15 04:44:00,73.2,66.9,30.00,SSE,160,3.3,5.2,81,0.00,,CLR,0.00,VWS V14.01,2013-06-15 09:44:00,
2013-06-15 04:45:00,73.2,66.9,30.00,South,179,2.8,5.2,81,0.00,,CLR,0.00,VWS V14.01,2013-06-15 09:45:00,
2013-06-15 04:46:00,73.2,66.9,30.00,South,187,3.9,7.0,81,0.00,,CLR,0.00,VWS V14.01,2013-06-15 09:46:00,
2013-06-15 04:48:00,73.0,66.7,30.00,SSW,206,3.9,6.4,81,0.00,,CLR,0.00,VWS V14.01,2013-06-15 09:48:00,
2013-06-15 04:50:00,73.0,66.7,30.00,SSE,151,2.8,5.2,81,0.00,,CLR,0.00,VWS V14.01,2013-06-15 09:50:00,
2013-06-15 04:52:00,73.0,66.7,30.00,SW,220,3.3,4.7,81,0.00,,CLR,0.00,VWS V14.01,2013-06-15 09:52:00,
2013-06-15 04:54:00,73.0,66.7,30.00,SSE,148,0.0,4.7,81,0.00,,CLR,0.00,VWS V14.01,2013-06-15 09:54:00,
2013-06-15 04:55:00,73.0,66.7,30.00,SSE,162,3.9,5.2,81,0.00,,CLR,0.00,VWS V14.01,2013-06-15 09:55:00,
2013-06-15 04:56:00,72.9,66.5,30.00,ESE,103,3.9,5.2,81,0.00,,CLR,0.00,VWS V14.01,2013-06-15 09:56:00,
2013-06-15 04:58:00,72.9,66.5,30.00,SSE,164,0.0,7.0,81,0.00,,CLR,0.00,VWS V14.01,2013-06-15 09:58:00,
2013-06-15 05:00:00,72.9,66.5,30.00,SE,145,2.8,2.9,81,0.00,,FEW034,0.00,VWS V14.01,2013-06-15 10:00:00,
2013-06-15 05:02:00,72.9,66.5,30.00,SSE,166,0.0,5.2,81,0.00,,CLR,0.00,VWS V14.01,2013-06-15 10:02:00,
2013-06-15 05:04:00,72.9,66.5,30.00,SSW,199,2.8,2.9,81,0.00,,CLR,0.00,VWS V14.01,2013-06-15 10:04:00,
2013-06-15 05:05:00,72.9,66.5,30.00,SSW,201,2.8,4.7,81,0.00,,FEW034,0.00,VWS V14.01,2013-06-15 10:05:00,
2013-06-15 05:06:00,72.7,66.3,30.00,SSW,204,5.0,5.2,81,0.00,,CLR,0.00,VWS V14.01,2013-06-15 10:06:00,
2013-06-15 05:08:00,72.7,66.3,30.00,SSW,193,0.0,5.2,81,0.00,,CLR,0.00,VWS V14.01,2013-06-15 10:08:00,
2013-06-15 05:10:00,72.7,66.3,30.00,SSE,148,3.9,4.1,81,0.00,,FEW034,0.00,VWS V14.01,2013-06-15 10:10:00,
2013-06-15 05:12:00,72.5,66.2,30.00,SSE,163,0.0,5.2,81,0.00,,CLR,0.00,VWS V14.01,2013-06-15 10:12:00,
2013-06-15 05:14:00,72.5,66.2,30.00,SSE,167,0.0,5.2,81,0.00,,CLR,0.00,VWS V14.01,2013-06-15 10:14:00,
2013-06-15 05:15:00,72.5,66.2,30.00,SE,138,3.9,5.2,81,0.00,,FEW034,0.00,VWS V14.01,2013-06-15 10:15:00,
2013-06-15 05:16:00,72.5,66.2,30.00,SSW,209,3.3,5.2,81,0.00,,CLR,0.00,VWS V14.01,2013-06-15 10:16:00,
2013-06-15 05:18:00,72.5,66.2,30.00,SSE,156,0.0,6.4,81,0.00,,CLR,0.00,VWS V14.01,2013-06-15 10:18:00,
2013-06-15 05:20:00,72.5,66.2,30.00,South,186,5.0,7.0,81,0.00,,CLR,0.00,VWS V14.01,2013-06-15 10:20:00,
2013-06-15 05:22:00,72.5,66.2,30.00,SSE,152,0.0,5.2,81,0.00,,CLR,0.00,VWS V14.01,2013-06-15 10:22:00,
2013-06-15 05:24:00,72.5,66.2,30.00,SW,218,3.3,5.2,81,0.00,,CLR,0.00,VWS V14.01,2013-06-15 10:24:00,
2013-06-15 05:25:00,72.5,66.2,30.00,SSW,198,0.0,5.2,81,0.00,,CLR,0.00,VWS V14.01,2013-06-15 10:25:00,
2013-06-15 05:26:00,72.5,66.2,30.00,South,180,5.0,5.2,81,0.00,,CLR,0.00,VWS V14.01,2013-06-15 10:26:00,
2013-06-15 05:28:00,72.5,66.2,30.00,South,183,3.9,6.4,81,0.00,,CLR,0.00,VWS V14.01,2013-06-15 10:28:00,
2013-06-15 05:30:00,72.5,66.2,30.00,SE,127,0.0,5.2,81,0.00,,CLR,0.00,VWS V14.01,2013-06-15 10:30:00,
2013-06-15 05:32:00,72.5,66.2,30.00,SW,235,2.8,4.7,81,0.00,,CLR,0.00,VWS V14.01,2013-06-15 10:32:00,
2013-06-15 05:34:00,72.5,66.2,30.00,SSW,210,0.0,4.7,81,0.00,,CLR,0.00,VWS V14.01,2013-06-15 10:34:00,
2013-06-15 05:35:00,72.5,66.2,30.00,SSW,209,3.9,5.2,81,0.00,,CLR,0.00,VWS V14.01,2013-06-15 10:35:00,
2013-06-15 05:36:00,72.5,66.2,30.00,SSW,202,3.9,8.1,81,0.00,,CLR,0.00,VWS V14.01,2013-06-15 10:36:00,
2013-06-15 05:38:00,72.5,66.2,30.00,SSW,200,0.0,5.2,81,0.00,,CLR,0.00,VWS V14.01,2013-06-15 10:38:00,
2013-06-15 05:40:00,72.5,66.2,30.00,South,189,4.4,5.2,81,0.00,,CLR,0.00,VWS V14.01,2013-06-15 10:40:00,
2013-06-15 05:42:00,72.3,66.0,30.00,SSW,200,0.0,6.4,81,0.00,,CLR,0.00,VWS V14.01,2013-06-15 10:42:00,
2013-06-15 05:44:00,72.3,66.0,30.00,SSW,195,0.0,4.7,81,0.00,,CLR,0.00,VWS V14.01,2013-06-15 10:44:00,
2013-06-15 05:45:00,72.3,66.0,30.00,SSW,201,0.0,4.7,81,0.00,,CLR,0.00,VWS V14.01,2013-06-15 10:45:00,
2013-06-15 05:46:00,72.3,66.0,30.00,South,180,0.0,4.7,81,0.00,,CLR,0.00,VWS V14.01,2013-06-15 10:46:00,
2013-06-15 05:48:00,72.1,65.8,30.00,SE,136,0.0,4.7,81,0.00,,CLR,0.00,VWS V14.01,2013-06-15 10:48:00,
2013-06-15 05:50:00,72.1,65.8,30.00,SE,136,0.0,4.1,81,0.00,,CLR,0.00,VWS V14.01,2013-06-15 10:50:00,
2013-06-15 05:52:00,72.1,65.8,30.00,South,175,3.3,3.5,81,0.00,,CLR,0.00,VWS V14.01,2013-06-15 10:52:00,
2013-06-15 05:54:00,72.1,66.3,30.00,SW,220,0.0,4.1,82,0.00,,CLR,0.00,VWS V14.01,2013-06-15 10:54:00,
2013-06-15 05:55:00,72.0,66.1,30.00,South,169,0.0,4.1,82,0.00,,CLR,0.00,VWS V14.01,2013-06-15 10:55:00,
2013-06-15 05:56:00,72.0,66.1,30.00,South,174,0.0,3.5,82,0.00,,CLR,0.00,VWS V14.01,2013-06-15 10:56:00,
2013-06-15 05:58:00,72.0,66.1,30.00,South,176,0.0,0.0,82,0.00,,CLR,0.00,VWS V14.01,2013-06-15 10:58:00,
2013-06-15 06:00:00,72.0,66.1,30.00,South,176,0.0,0.0,82,0.00,,CLR,0.00,VWS V14.01,2013-06-15 11:00:00,
2013-06-15 06:02:00,72.0,66.1,30.00,SE,142,2.8,2.9,82,0.00,,CLR,0.00,VWS V14.01,2013-06-15 11:02:00,
2013-06-15 06:04:00,72.0,66.1,30.00,SE,143,0.0,2.9,82,0.00,,CLR,0.00,VWS V14.01,2013-06-15 11:04:00,
2013-06-15 06:05:00,72.0,66.1,30.00,South,178,0.0,4.1,82,0.00,,CLR,0.00,VWS V14.01,2013-06-15 11:05:00,
2013-06-15 06:06:00,72.0,66.1,30.00,South,178,0.0,4.1,82,0.00,,CLR,0.00,VWS V14.01,2013-06-15 11:06:00,
2013-06-15 06:08:00,71.8,65.9,30.00,South,190,0.0,2.9,82,0.00,,CLR,0.00,VWS V14.01,2013-06-15 11:08:00,
2013-06-15 06:10:00,71.8,65.9,30.00,SSW,203,0.0,0.0,82,0.00,,CLR,0.00,VWS V14.01,2013-06-15 11:10:00,
2013-06-15 06:12:00,71.8,65.9,30.00,SSW,204,0.0,0.0,82,0.00,,CLR,0.00,VWS V14.01,2013-06-15 11:12:00,
2013-06-15 06:14:00,71.6,65.8,30.00,SSW,204,0.0,0.0,82,0.00,,CLR,0.00,VWS V14.01,2013-06-15 11:14:00,
2013-06-15 06:15:00,71.6,65.8,30.00,SSW,205,0.0,0.0,82,0.00,,CLR,0.00,VWS V14.01,2013-06-15 11:15:00,
2013-06-15 06:16:00,71.6,65.8,30.00,SSW,204,0.0,0.0,82,0.00,,CLR,0.00,VWS V14.01,2013-06-15 11:16:00,
2013-06-15 06:18:00,71.6,65.8,30.00,SE,137,0.0,2.9,82,0.00,,CLR,0.00,VWS V14.01,2013-06-15 11:18:00,
2013-06-15 06:20:00,71.4,66.1,30.00,ESE,117,0.0,3.5,83,0.00,,CLR,0.00,VWS V14.01,2013-06-15 11:20:00,
2013-06-15 06:22:00,71.4,66.1,30.00,ESE,117,0.0,3.5,83,0.00,,CLR,0.00,VWS V14.01,2013-06-15 11:22:00,
2013-06-15 06:24:00,71.4,66.1,30.00,ESE,117,0.0,0.0,83,0.00,,CLR,0.00,VWS V14.01,2013-06-15 11:24:00,
2013-06-15 06:26:00,71.4,66.1,30.00,ESE,117,0.0,0.0,83,0.00,,CLR,0.00,VWS V14.01,2013-06-15 11:26:00,
2013-06-15 06:28:00,71.4,66.5,30.00,ESE,117,0.0,0.0,84,0.00,,CLR,0.00,VWS V14.01,2013-06-15 11:28:00,
2013-06-15 06:30:00,71.4,66.5,30.00,ESE,117,0.0,0.0,84,0.00,,CLR,0.00,VWS V14.01,2013-06-15 11:30:00,
2013-06-15 06:31:00,71.4,66.5,30.00,ESE,118,0.0,0.0,84,0.00,,CLR,0.00,VWS V14.01,2013-06-15 11:31:00,
2013-06-15 06:32:00,71.4,66.5,30.00,ESE,118,0.0,0.0,84,0.00,,CLR,0.00,VWS V14.01,2013-06-15 11:32:00,
2013-06-15 06:34:00,71.4,66.5,30.00,ESE,117,0.0,0.0,84,0.00,,CLR,0.00,VWS V14.01,2013-06-15 11:34:00,
2013-06-15 06:36:00,71.4,66.5,30.00,ESE,117,0.0,0.0,84,0.00,,CLR,0.00,VWS V14.01,2013-06-15 11:36:00,
2013-06-15 06:38:00,71.4,66.5,30.00,ESE,117,0.0,0.0,84,0.00,,CLR,0.00,VWS V14.01,2013-06-15 11:38:00,
2013-06-15 06:40:00,71.4,66.5,30.00,ESE,117,0.0,0.0,84,0.00,,CLR,0.00,VWS V14.01,2013-06-15 11:40:00,
2013-06-15 06:41:00,71.4,66.5,30.00,ESE,117,0.0,0.0,84,0.00,,CLR,0.00,VWS V14.01,2013-06-15 11:41:00,
2013-06-15 06:42:00,71.2,66.3,30.00,ESE,117,0.0,0.0,84,0.00,,CLR,0.00,VWS V14.01,2013-06-15 11:42:00,
2013-06-15 06:44:00,71.2,66.3,30.00,ESE,117,0.0,0.0,84,0.00,,CLR,0.00,VWS V14.01,2013-06-15 11:44:00,
2013-06-15 06:46:00,71.2,66.3,30.00,ESE,116,0.0,0.0,84,0.00,,CLR,0.00,VWS V14.01,2013-06-15 11:46:00,
2013-06-15 06:48:00,71.2,66.8,30.00,ESE,117,0.0,3.5,86,0.00,,CLR,0.00,VWS V14.01,2013-06-15 11:48:00,
2013-06-15 06:50:00,71.2,66.8,30.00,ESE,122,0.0,4.1,86,0.00,,CLR,0.00,VWS V14.01,2013-06-15 11:50:00,
2013-06-15 06:51:00,71.2,66.8,30.00,ESE,122,0.0,4.1,86,0.00,,CLR,0.00,VWS V14.01,2013-06-15 11:51:00,
2013-06-15 06:52:00,71.4,66.9,30.00,ESE,122,0.0,0.0,86,0.00,,CLR,0.00,VWS V14.01,2013-06-15 11:52:00,
2013-06-15 06:54:00,71.4,66.9,30.00,ESE,121,0.0,0.0,86,0.00,,CLR,0.00,VWS V14.01,2013-06-15 11:54:00,
2013-06-15 06:56:00,71.4,66.9,30.00,ESE,122,0.0,0.0,86,0.00,,CLR,0.00,VWS V14.01,2013-06-15 11:56:00,
2013-06-15 06:58:00,71.6,67.1,30.00,ESE,122,0.0,0.0,86,0.00,,CLR,0.00,VWS V14.01,2013-06-15 11:58:00,
2013-06-15 07:00:00,71.6,67.1,30.00,NE,51,3.9,4.1,86,0.00,,CLR,0.00,VWS V14.01,2013-06-15 12:00:00,
2013-06-15 07:01:00,71.8,67.3,30.00,East,79,3.3,4.1,86,0.00,,CLR,0.00,VWS V14.01,2013-06-15 12:01:00,
2013-06-15 07:02:00,71.8,67.3,30.00,ESE,119,0.0,4.1,86,0.00,,CLR,0.00,VWS V14.01,2013-06-15 12:02:00,
2013-06-15 07:04:00,71.8,67.3,30.00,East,100,0.0,0.0,86,0.00,,CLR,0.00,VWS V14.01,2013-06-15 12:04:00,
2013-06-15 07:06:00,71.8,67.3,30.00,East,99,0.0,0.0,86,0.00,,CLR,0.00,VWS V14.01,2013-06-15 12:06:00,
2013-06-15 07:08:00,72.0,67.5,30.00,East,100,0.0,0.0,86,0.00,,CLR,0.00,VWS V14.01,2013-06-15 12:08:00,
2013-06-15 07:10:00,72.0,67.5,30.00,East,100,0.0,0.0,86,0.00,,CLR,0.00,VWS V14.01,2013-06-15 12:10:00,
2013-06-15 07:11:00,72.0,67.5,30.00,East,101,0.0,0.0,86,0.00,,CLR,0.00,VWS V14.01,2013-06-15 12:11:00,
2013-06-15 07:12:00,72.0,67.5,30.00,East,101,0.0,0.0,86,0.00,,CLR,0.00,VWS V14.01,2013-06-15 12:12:00,
2013-06-15 07:14:00,72.0,67.5,30.00,South,190,3.3,3.5,86,0.00,,CLR,0.00,VWS V14.01,2013-06-15 12:14:00,
2013-06-15 07:16:00,72.0,67.5,30.00,SSW,210,0.0,4.1,86,0.00,,CLR,0.00,VWS V14.01,2013-06-15 12:16:00,
2013-06-15 07:18:00,72.0,67.5,30.00,SSW,210,0.0,2.9,86,0.00,,CLR,0.00,VWS V14.01,2013-06-15 12:18:00,
2013-06-15 07:20:00,72.1,67.7,30.00,SSW,210,0.0,0.0,86,0.00,,CLR,0.00,VWS V14.01,2013-06-15 12:20:00,
2013-06-15 07:21:00,72.1,67.7,30.00,SSW,211,0.0,0.0,86,0.00,,CLR,0.00,VWS V14.01,2013-06-15 12:21:00,
2013-06-15 07:22:00,72.1,67.7,30.00,SSW,210,0.0,0.0,86,0.00,,CLR,0.00,VWS V14.01,2013-06-15 12:22:00,
2013-06-15 07:24:00,72.1,67.7,30.00,SSW,211,0.0,0.0,86,0.00,,CLR,0.00,VWS V14.01,2013-06-15 12:24:00,
2013-06-15 07:26:00,72.3,67.8,30.00,SSW,210,0.0,0.0,86,0.00,,CLR,0.00,VWS V14.01,2013-06-15 12:26:00,
2013-06-15 07:28:00,72.3,67.8,30.00,SSW,210,0.0,0.0,86,0.00,,CLR,0.00,VWS V14.01,2013-06-15 12:28:00,
2013-06-15 07:30:00,72.3,67.4,30.00,SSW,210,0.0,0.0,84,0.00,,CLR,0.00,VWS V14.01,2013-06-15 12:30:00,
2013-06-15 07:31:00,72.3,67.4,30.00,SSW,210,0.0,0.0,84,0.00,,CLR,0.00,VWS V14.01,2013-06-15 12:31:00,
2013-06-15 07:32:00,72.5,67.6,30.00,SSW,210,0.0,0.0,84,0.00,,CLR,0.00,VWS V14.01,2013-06-15 12:32:00,
2013-06-15 07:34:00,72.5,67.6,30.00,SSW,210,0.0,0.0,84,0.00,,CLR,0.00,VWS V14.01,2013-06-15 12:34:00,
2013-06-15 07:36:00,72.5,67.6,30.00,SSW,210,0.0,0.0,84,0.00,,CLR,0.00,VWS V14.01,2013-06-15 12:36:00,
2013-06-15 07:38:00,72.7,67.7,30.00,SSW,211,0.0,0.0,84,0.00,,CLR,0.00,VWS V14.01,2013-06-15 12:38:00,
2013-06-15 07:40:00,72.7,67.7,30.00,SSW,199,3.3,5.2,84,0.00,,CLR,0.00,VWS V14.01,2013-06-15 12:40:00,
2013-06-15 07:41:00,72.9,67.9,30.00,South,190,2.8,5.2,84,0.00,,CLR,0.00,VWS V14.01,2013-06-15 12:41:00,
2013-06-15 07:42:00,72.9,67.9,30.00,South,190,2.8,3.5,84,0.00,,CLR,0.00,VWS V14.01,2013-06-15 12:42:00,
2013-06-15 07:44:00,72.9,67.9,30.00,South,190,0.0,3.5,84,0.00,,CLR,0.00,VWS V14.01,2013-06-15 12:44:00,
2013-06-15 07:46:00,73.0,68.1,30.00,South,190,0.0,0.0,84,0.00,,CLR,0.00,VWS V14.01,2013-06-15 12:46:00,
2013-06-15 07:48:00,73.0,68.1,30.00,SSW,199,0.0,4.1,84,0.00,,CLR,0.00,VWS V14.01,2013-06-15 12:48:00,
2013-06-15 07:50:00,73.2,68.3,30.00,SW,221,0.0,0.0,84,0.00,,CLR,0.00,VWS V14.01,2013-06-15 12:50:00,
2013-06-15 07:51:00,73.2,68.3,30.00,SW,222,0.0,0.0,84,0.00,,CLR,0.00,VWS V14.01,2013-06-15 12:51:00,
2013-06-15 07:52:00,73.2,68.3,30.00,SW,221,0.0,0.0,84,0.00,,CLR,0.00,VWS V14.01,2013-06-15 12:52:00,
2013-06-15 07:54:00,73.2,68.3,30.00,SW,221,0.0,0.0,84,0.00,,CLR,0.00,VWS V14.01,2013-06-15 12:54:00,
2013-06-15 07:56:00,73.2,67.8,30.00,SW,221,0.0,0.0,83,0.00,,CLR,0.00,VWS V14.01,2013-06-15 12:56:00,
2013-06-15 07:58:00,73.2,67.8,30.00,SW,221,0.0,0.0,83,0.00,,CLR,0.00,VWS V14.01,2013-06-15 12:58:00,
2013-06-15 08:00:00,73.4,68.0,30.00,SW,221,0.0,0.0,83,0.00,,CLR,0.00,VWS V14.01,2013-06-15 13:00:00,
2013-06-15 08:01:00,73.4,68.0,30.00,SW,222,0.0,0.0,83,0.00,,CLR,0.00,VWS V14.01,2013-06-15 13:01:00,
2013-06-15 08:02:00,73.4,68.0,30.00,SW,221,0.0,0.0,83,0.00,,CLR,0.00,VWS V14.01,2013-06-15 13:02:00,
2013-06-15 08:04:00,73.4,68.0,30.00,SW,222,0.0,0.0,83,0.00,,CLR,0.00,VWS V14.01,2013-06-15 13:04:00,
2013-06-15 08:06:00,73.6,68.2,30.00,SW,222,0.0,0.0,83,0.00,,CLR,0.00,VWS V14.01,2013-06-15 13:06:00,
2013-06-15 08:08:00,73.6,68.2,30.00,SW,222,0.0,0.0,83,0.00,,CLR,0.00,VWS V14.01,2013-06-15 13:08:00,
2013-06-15 08:10:00,73.8,68.8,30.00,SW,221,0.0,0.0,84,0.00,,CLR,0.00,VWS V14.01,2013-06-15 13:10:00,
2013-06-15 08:11:00,73.8,68.8,30.00,SE,141,4.4,4.7,84,0.00,,CLR,0.00,VWS V14.01,2013-06-15 13:11:00,
2013-06-15 08:12:00,73.8,68.8,30.00,SSE,150,0.0,4.7,84,0.00,,CLR,0.00,VWS V14.01,2013-06-15 13:12:00,
2013-06-15 08:14:00,73.9,69.0,30.00,SSE,162,0.0,5.2,84,0.00,,CLR,0.00,VWS V14.01,2013-06-15 13:14:00,
2013-06-15 08:16:00,74.1,68.7,30.00,South,189,3.9,4.1,83,0.00,,CLR,0.00,VWS V14.01,2013-06-15 13:16:00,
2013-06-15 08:18:00,74.3,68.9,30.00,SSE,157,3.3,5.2,83,0.00,,CLR,0.00,VWS V14.01,2013-06-15 13:18:00,
2013-06-15 08:20:00,74.7,69.2,30.00,SSW,203,0.0,3.5,83,0.00,,CLR,0.00,VWS V14.01,2013-06-15 13:20:00,
2013-06-15 08:21:00,74.7,69.2,30.00,ESE,113,4.4,4.7,83,0.00,,CLR,0.00,VWS V14.01,2013-06-15 13:21:00,
2013-06-15 08:22:00,74.8,69.4,30.00,SSE,149,6.7,7.0,83,0.00,,CLR,0.00,VWS V14.01,2013-06-15 13:22:00,
2013-06-15 08:24:00,75.2,69.3,30.00,SSE,165,0.0,7.0,82,0.00,,CLR,0.00,VWS V14.01,2013-06-15 13:24:00,
2013-06-15 08:26:00,75.4,68.0,30.00,SSE,163,6.7,7.0,78,0.00,,CLR,0.00,VWS V14.01,2013-06-15 13:26:00,
2013-06-15 08:28:00,75.7,68.3,30.00,SSE,151,3.3,7.0,78,0.00,,CLR,0.00,VWS V14.01,2013-06-15 13:28:00,
2013-06-15 08:30:00,75.9,68.5,30.00,East,99,0.0,5.2,78,0.00,,CLR,0.00,VWS V14.01,2013-06-15 13:30:00,
2013-06-15 08:31:00,76.1,68.7,30.00,SSW,197,3.3,6.4,78,0.00,,CLR,0.00,VWS V14.01,2013-06-15 13:31:00,
2013-06-15 08:32:00,76.1,68.7,30.00,ESE,108,0.0,6.4,78,0.00,,CLR,0.00,VWS V14.01,2013-06-15 13:32:00,
2013-06-15 08:34:00,76.5,68.1,30.00,SSE,167,6.1,7.6,75,0.00,,CLR,0.00,VWS V14.01,2013-06-15 13:34:00,
2013-06-15 08:36:00,76.5,67.5,30.00,South,175,2.8,6.4,74,0.00,,CLR,0.00,VWS V14.01,2013-06-15 13:36:00,
2013-06-15 08:38:00,76.5,66.5,30.00,South,177,0.0,5.2,71,0.00,,CLR,0.00,VWS V14.01,2013-06-15 13:38:00,
2013-06-15 08:40:00,76.5,67.0,30.00,SE,135,0.0,5.2,73,0.00,,CLR,0.00,VWS V14.01,2013-06-15 13:40:00,
2013-06-15 08:41:00,76.6,67.2,30.00,SSE,153,6.1,7.0,73,0.00,,CLR,0.00,VWS V14.01,2013-06-15 13:41:00,
2013-06-15 08:42:00,76.6,67.2,30.00,SE,144,5.0,7.0,73,0.00,,CLR,0.00,VWS V14.01,2013-06-15 13:42:00,
2013-06-15 08:44:00,76.6,66.7,30.00,ESE,106,7.2,8.1,71,0.00,,CLR,0.00,VWS V14.01,2013-06-15 13:44:00,
2013-06-15 08:46:00,76.6,66.7,30.00,SE,131,4.4,7.0,71,0.00,,CLR,0.00,VWS V14.01,2013-06-15 13:46:00,
2013-06-15 08:48:00,76.6,66.1,30.00,South,177,2.8,5.2,70,0.00,,CLR,0.00,VWS V14.01,2013-06-15 13:48:00,
2013-06-15 08:50:00,76.6,66.1,30.00,South,188,2.8,4.7,70,0.00,,CLR,0.00,VWS V14.01,2013-06-15 13:50:00,
2013-06-15 08:51:00,76.6,66.7,30.00,SE,137,0.0,4.1,71,0.00,,CLR,0.00,VWS V14.01,2013-06-15 13:51:00,
2013-06-15 08:52:00,76.6,66.7,30.00,SE,146,5.0,5.2,71,0.00,,CLR,0.00,VWS V14.01,2013-06-15 13:52:00,
2013-06-15 08:54:00,76.8,66.8,30.00,SE,128,6.7,8.1,71,0.00,,CLR,0.00,VWS V14.01,2013-06-15 13:54:00,
2013-06-15 08:56:00,76.8,65.7,30.03,SSE,159,3.3,7.6,69,0.00,,CLR,0.00,VWS V14.01,2013-06-15 13:56:00,
2013-06-15 08:58:00,76.8,65.7,30.03,ESE,119,3.3,5.2,69,0.00,,CLR,0.00,VWS V14.01,2013-06-15 13:58:00,
2013-06-15 09:00:00,77.0,65.9,30.03,ESE,123,0.0,4.7,69,0.00,,CLR,0.00,VWS V14.01,2013-06-15 14:00:00,
2013-06-15 09:02:00,77.0,65.9,30.03,SSE,156,3.9,8.1,69,0.00,,CLR,0.00,VWS V14.01,2013-06-15 14:02:00,
2013-06-15 09:04:00,77.0,65.3,30.03,SSE,156,7.8,8.1,67,0.00,,CLR,0.00,VWS V14.01,2013-06-15 14:04:00,
2013-06-15 09:06:00,76.8,65.2,30.03,South,185,3.9,8.7,67,0.00,,CLR,0.00,VWS V14.01,2013-06-15 14:06:00,
2013-06-15 09:07:00,76.8,65.2,30.03,SSW,207,5.0,8.7,67,0.00,,CLR,0.00,VWS V14.01,2013-06-15 14:07:00,
2013-06-15 09:08:00,76.8,65.2,30.03,SSE,155,6.7,7.0,67,0.00,,CLR,0.00,VWS V14.01,2013-06-15 14:08:00,
2013-06-15 09:10:00,77.2,66.1,30.03,SSE,160,5.0,7.0,69,0.00,,CLR,0.00,VWS V14.01,2013-06-15 14:10:00,
2013-06-15 09:12:00,77.5,67.0,30.03,SSW,206,5.0,5.2,70,0.00,,CLR,0.00,VWS V14.01,2013-06-15 14:12:00,
2013-06-15 09:14:00,77.7,66.6,30.03,South,173,5.0,8.1,69,0.00,,CLR,0.00,VWS V14.01,2013-06-15 14:14:00,
2013-06-15 09:16:00,77.9,65.1,30.03,South,173,7.8,10.5,65,0.00,,CLR,0.00,VWS V14.01,2013-06-15 14:16:00,
2013-06-15 09:17:00,77.9,65.1,30.03,South,185,3.9,10.5,65,0.00,,CLR,0.00,VWS V14.01,2013-06-15 14:17:00,
2013-06-15 09:18:00,77.9,65.1,30.03,ESE,116,5.0,10.5,65,0.00,,CLR,0.00,VWS V14.01,2013-06-15 14:18:00,
2013-06-15 09:20:00,77.9,65.6,30.03,South,177,3.3,7.6,66,0.00,,CLR,0.00,VWS V14.01,2013-06-15 14:20:00,
2013-06-15 09:22:00,77.9,66.2,30.03,SSW,203,3.3,7.6,67,0.00,,CLR,0.00,VWS V14.01,2013-06-15 14:22:00,
2013-06-15 09:24:00,77.9,65.6,30.03,ESE,123,3.9,5.2,66,0.00,,CLR,0.00,VWS V14.01,2013-06-15 14:24:00,
2013-06-15 09:26:00,78.1,65.8,30.03,South,174,7.2,7.6,66,0.00,,CLR,0.00,VWS V14.01,2013-06-15 14:26:00,
2013-06-15 09:27:00,78.1,65.8,30.03,South,182,6.7,7.6,66,0.00,,CLR,0.00,VWS V14.01,2013-06-15 14:27:00,
2013-06-15 09:28:00,78.1,66.4,30.03,SSW,200,3.3,7.6,67,0.00,,CLR,0.00,VWS V14.01,2013-06-15 14:28:00,
2013-06-15 09:30:00,78.3,66.6,30.03,SSW,197,2.8,4.7,67,0.00,,CLR,0.00,VWS V14.01,2013-06-15 14:30:00,
2013-06-15 09:32:00,78.3,66.6,30.03,SSE,164,7.2,7.6,67,0.00,,CLR,0.00,VWS V14.01,2013-06-15 14:32:00,
2013-06-15 09:34:00,78.6,66.9,30.03,SE,124,4.4,5.2,67,0.00,,CLR,0.00,VWS V14.01,2013-06-15 14:34:00,
2013-06-15 09:36:00,78.8,67.1,30.03,SSE,150,4.4,7.6,67,0.00,,CLR,0.00,VWS V14.01,2013-06-15 14:36:00,
2013-06-15 09:37:00,78.8,67.1,30.03,South,178,3.3,7.6,67,0.00,,CLR,0.00,VWS V14.01,2013-06-15 14:37:00,
2013-06-15 09:38:00,79.2,68.0,30.03,SSE,166,0.0,7.6,69,0.00,,CLR,0.00,VWS V14.01,2013-06-15 14:38:00,
2013-06-15 09:40:00,79.3,68.1,30.03,SSE,159,0.0,5.2,69,0.00,,CLR,0.00,VWS V14.01,2013-06-15 14:40:00,
2013-06-15 09:42:00,79.9,67.5,30.03,SSW,196,6.1,7.6,66,0.00,,CLR,0.00,VWS V14.01,2013-06-15 14:42:00,
2013-06-15 09:44:00,80.1,67.7,30.03,SW,227,9.4,9.9,66,0.00,,CLR,0.00,VWS V14.01,2013-06-15 14:44:00,
2013-06-15 09:46:00,80.2,68.4,30.03,ESE,123,6.7,10.8,67,0.00,,CLR,0.00,VWS V14.01,2013-06-15 14:46:00,
2013-06-15 09:47:00,80.2,67.9,30.03,SSW,193,5.0,9.9,66,0.00,,CLR,0.00,VWS V14.01,2013-06-15 14:47:00,
2013-06-15 09:48:00,80.2,67.9,30.03,SSE,163,4.4,9.9,66,0.00,,CLR,0.00,VWS V14.01,2013-06-15 14:48:00,
2013-06-15 09:50:00,80.4,67.4,30.03,South,177,9.4,9.9,65,0.00,,CLR,0.00,VWS V14.01,2013-06-15 14:50:00,
2013-06-15 09:52:00,80.4,66.2,30.03,South,183,7.8,10.8,62,0.00,,CLR,0.00,VWS V14.01,2013-06-15 14:52:00,
2013-06-15 09:54:00,80.4,66.2,30.03,SSE,155,4.4,10.8,62,0.00,,CLR,0.00,VWS V14.01,2013-06-15 14:54:00,
2013-06-15 09:56:00,80.4,66.2,30.03,ESE,104,5.0,8.1,62,0.00,,CLR,0.00,VWS V14.01,2013-06-15 14:56:00,
2013-06-15 09:57:00,80.4,66.8,30.03,SSE,168,3.9,7.6,63,0.00,,CLR,0.00,VWS V14.01,2013-06-15 14:57:00,
2013-06-15 09:58:00,80.6,67.0,30.03,SSW,207,7.8,8.1,63,0.00,,CLR,0.00,VWS V14.01,2013-06-15 14:58:00,
2013-06-15 10:00:00,80.8,67.2,30.03,South,189,0.0,9.9,63,0.00,,CLR,0.00,VWS V14.01,2013-06-15 15:00:00,
2013-06-15 10:02:00,81.0,66.8,30.03,ESE,114,5.0,7.0,62,0.00,,CLR,0.00,VWS V14.01,2013-06-15 15:02:00,
2013-06-15 10:04:00,81.1,66.9,30.03,SE,142,6.7,7.0,62,0.00,,CLR,0.00,VWS V14.01,2013-06-15 15:04:00,
2013-06-15 10:06:00,81.1,66.9,30.03,South,177,5.0,8.1,62,0.00,,CLR,0.00,VWS V14.01,2013-06-15 15:06:00,
2013-06-15 10:07:00,81.3,66.5,30.03,ESE,105,3.9,7.0,61,0.00,,CLR,0.00,VWS V14.01,2013-06-15 15:07:00,
2013-06-15 10:08:00,81.3,66.5,30.03,South,186,7.2,8.1,61,0.00,,CLR,0.00,VWS V14.01,2013-06-15 15:08:00,
2013-06-15 10:10:00,81.5,66.0,30.03,SE,142,3.3,8.1,59,0.00,,CLR,0.00,VWS V14.01,2013-06-15 15:10:00,
2013-06-15 10:12:00,81.5,66.6,30.03,SSE,159,6.7,9.9,61,0.00,,CLR,0.00,VWS V14.01,2013-06-15 15:12:00,
2013-06-15 10:14:00,81.7,66.2,30.03,South,189,4.4,7.0,59,0.00,,CLR,0.00,VWS V14.01,2013-06-15 15:14:00,
2013-06-15 10:16:00,81.7,66.8,30.03,SSE,163,3.3,8.1,61,0.00,,CLR,0.00,VWS V14.01,2013-06-15 15:16:00,
2013-06-15 10:17:00,81.9,67.0,30.03,ESE,103,5.0,5.2,61,0.00,,CLR,0.00,VWS V14.01,2013-06-15 15:17:00,
2013-06-15 10:18:00,81.9,67.0,30.03,SSE,161,6.1,7.6,61,0.00,,CLR,0.00,VWS V14.01,2013-06-15 15:18:00,
2013-06-15 10:20:00,82.0,67.1,30.03,SSW,207,6.7,7.0,61,0.00,,CLR,0.00,VWS V14.01,2013-06-15 15:20:00,
2013-06-15 10:22:00,82.2,67.3,30.03,SW,236,4.4,8.1,61,0.00,,CLR,0.00,VWS V14.01,2013-06-15 15:22:00,
2013-06-15 10:24:00,82.2,67.3,30.03,WSW,252,4.4,8.1,61,0.00,,CLR,0.00,VWS V14.01,2013-06-15 15:24:00,
2013-06-15 10:26:00,82.6,67.7,30.03,SSW,196,9.4,9.9,61,0.00,,CLR,0.00,VWS V14.01,2013-06-15 15:26:00,
2013-06-15 10:27:00,82.6,67.7,30.03,SSE,165,3.9,9.9,61,0.00,,CLR,0.00,VWS V14.01,2013-06-15 15:27:00,
2013-06-15 10:28:00,82.8,67.2,30.03,SSE,153,5.0,9.9,59,0.00,,CLR,0.00,VWS V14.01,2013-06-15 15:28:00,
2013-06-15 10:30:00,82.8,67.8,30.03,SSE,160,7.2,7.6,61,0.00,,CLR,0.00,VWS V14.01,2013-06-15 15:30:00,
2013-06-15 10:32:00,82.9,67.3,30.03,WSW,246,10.3,10.8,59,0.00,,CLR,0.00,VWS V14.01,2013-06-15 15:32:00,
2013-06-15 10:34:00,82.9,66.7,30.03,SSW,198,8.3,10.8,58,0.00,,CLR,0.00,VWS V14.01,2013-06-15 15:34:00,
2013-06-15 10:36:00,82.9,67.3,30.03,SSW,198,2.8,9.9,59,0.00,,CLR,0.00,VWS V14.01,2013-06-15 15:36:00,
2013-06-15 10:37:00,82.9,68.0,30.03,SSW,194,3.9,9.9,61,0.00,,CLR,0.00,VWS V14.01,2013-06-15 15:37:00,
2013-06-15 10:38:00,82.9,68.0,30.03,SSW,208,10.0,10.5,61,0.00,,CLR,0.00,VWS V14.01,2013-06-15 15:38:00,
2013-06-15 10:40:00,83.1,68.2,30.03,SSW,194,4.4,10.8,61,0.00,,CLR,0.00,VWS V14.01,2013-06-15 15:40:00,
2013-06-15 10:42:00,83.3,68.3,30.03,SSW,206,7.2,8.7,61,0.00,,CLR,0.00,VWS V14.01,2013-06-15 15:42:00,
2013-06-15 10:44:00,83.3,68.3,30.03,SW,224,6.7,8.7,61,0.00,,CLR,0.00,VWS V14.01,2013-06-15 15:44:00,
2013-06-15 10:46:00,83.5,68.5,30.03,SSW,211,10.8,11.3,61,0.00,,CLR,0.00,VWS V14.01,2013-06-15 15:46:00,
2013-06-15 10:47:00,83.7,68.7,30.03,South,170,0.0,11.3,61,0.00,,CLR,0.00,VWS V14.01,2013-06-15 15:47:00,
2013-06-15 10:48:00,83.7,68.0,30.03,SSE,166,3.9,11.3,59,0.00,,CLR,0.00,VWS V14.01,2013-06-15 15:48:00,
2013-06-15 10:50:00,83.8,68.8,30.03,SW,226,7.8,11.3,61,0.00,,CLR,0.00,VWS V14.01,2013-06-15 15:50:00,
2013-06-15 10:52:00,84.0,67.7,30.03,South,190,7.8,10.8,58,0.00,,CLR,0.00,VWS V14.01,2013-06-15 15:52:00,
2013-06-15 10:54:00,84.0,68.4,30.03,South,179,5.0,8.1,59,0.00,,CLR,0.00,VWS V14.01,2013-06-15 15:54:00,
2013-06-15 10:56:00,84.2,68.5,30.03,SW,227,8.3,10.5,59,0.00,,CLR,0.00,VWS V14.01,2013-06-15 15:56:00,
2013-06-15 10:57:00,84.2,67.9,30.03,South,171,6.7,15.4,58,0.00,,CLR,0.00,VWS V14.01,2013-06-15 15:57:00,
2013-06-15 10:58:00,84.4,68.0,30.03,SSE,167,6.7,15.4,58,0.00,,CLR,0.00,VWS V14.01,2013-06-15 15:58:00,
2013-06-15 11:00:00,84.4,68.0,30.03,South,185,7.8,8.1,58,0.00,,CLR,0.00,VWS V14.01,2013-06-15 16:00:00,
2013-06-15 11:02:00,84.4,68.7,30.03,SW,231,5.0,10.8,59,0.00,,CLR,0.00,VWS V14.01,2013-06-15 16:02:00,
2013-06-15 11:04:00,84.4,68.7,30.03,SW,221,6.1,10.8,59,0.00,,CLR,0.00,VWS V14.01,2013-06-15 16:04:00,
2013-06-15 11:06:00,84.6,68.9,30.03,WSW,245,10.3,10.8,59,0.00,,CLR,0.00,VWS V14.01,2013-06-15 16:06:00,
2013-06-15 11:08:00,84.9,69.8,30.03,WSW,249,7.8,14.2,61,0.00,,CLR,0.00,VWS V14.01,2013-06-15 16:08:00,
2013-06-15 11:10:00,84.9,68.6,30.03,SSW,212,7.8,13.1,58,0.00,,CLR,0.00,VWS V14.01,2013-06-15 16:10:00,
2013-06-15 11:12:00,84.9,68.6,30.03,SW,219,7.8,10.8,58,0.00,,CLR,0.00,VWS V14.01,2013-06-15 16:12:00,
2013-06-15 11:13:00,84.9,68.6,30.03,SSW,208,3.3,10.8,58,0.00,,CLR,0.00,VWS V14.01,2013-06-15 16:13:00,
2013-06-15 11:14:00,84.9,69.2,30.03,South,190,0.0,8.1,59,0.00,,CLR,0.00,VWS V14.01,2013-06-15 16:14:00,
2013-06-15 11:16:00,85.1,69.4,30.03,SSW,212,6.7,13.1,59,0.00,,CLR,0.00,VWS V14.01,2013-06-15 16:16:00,
2013-06-15 11:18:00,85.1,69.4,30.03,WSW,238,7.2,9.9,59,0.00,,CLR,0.00,VWS V14.01,2013-06-15 16:18:00,
2013-06-15 11:20:00,85.3,69.5,30.03,SW,233,6.7,10.5,59,0.00,,CLR,0.00,VWS V14.01,2013-06-15 16:20:00,
2013-06-15 11:22:00,85.5,69.7,30.03,South,177,7.8,10.5,59,0.00,,CLR,0.00,VWS V14.01,2013-06-15 16:22:00,
2013-06-15 11:23:00,85.5,70.3,30.03,SE,140,4.4,10.5,61,0.00,,CLR,0.00,VWS V14.01,2013-06-15 16:23:00,
2013-06-15 11:24:00,85.6,70.5,30.03,SW,236,3.9,8.1,61,0.00,,CLR,0.00,VWS V14.01,2013-06-15 16:24:00,
2013-06-15 11:26:00,85.6,70.5,30.03,SW,216,6.1,9.9,61,0.00,,CLR,0.00,VWS V14.01,2013-06-15 16:26:00,
2013-06-15 11:28:00,85.8,70.1,30.03,SSE,160,7.2,9.3,59,0.00,,CLR,0.00,VWS V14.01,2013-06-15 16:28:00,
2013-06-15 11:30:00,85.6,68.6,30.03,SE,140,6.7,8.1,57,0.00,,CLR,0.00,VWS V14.01,2013-06-15 16:30:00,
2013-06-15 11:32:00,85.6,69.2,30.03,WSW,243,7.2,11.3,58,0.00,,CLR,0.00,VWS V14.01,2013-06-15 16:32:00,
2013-06-15 11:33:00,85.6,69.9,30.03,South,175,7.2,11.3,59,0.00,,CLR,0.00,VWS V14.01,2013-06-15 16:33:00,
2013-06-15 11:34:00,85.8,70.7,30.03,SE,137,3.9,8.1,61,0.00,,CLR,0.00,VWS V14.01,2013-06-15 16:34:00,
2013-06-15 11:36:00,85.8,70.7,30.03,WSW,239,8.3,8.7,61,0.00,,CLR,0.00,VWS V14.01,2013-06-15 16:36:00,
2013-06-15 11:38:00,86.0,70.2,30.03,SW,220,7.2,10.8,59,0.00,,CLR,0.00,VWS V14.01,2013-06-15 16:38:00,
2013-06-15 11:40:00,86.0,69.6,30.03,South,172,7.2,11.3,58,0.00,,CLR,0.00,VWS V14.01,2013-06-15 16:40:00,
2013-06-15 11:42:00,85.6,69.2,30.03,WSW,246,6.7,7.6,58,0.00,,CLR,0.00,VWS V14.01,2013-06-15 16:42:00,
2013-06-15 11:43:00,85.6,69.2,30.03,SW,220,10.0,10.5,58,0.00,,CLR,0.00,VWS V14.01,2013-06-15 16:43:00,
2013-06-15 11:44:00,85.5,69.1,30.03,SSW,206,5.0,10.8,58,0.00,,CLR,0.00,VWS V14.01,2013-06-15 16:44:00,
2013-06-15 11:46:00,85.5,69.7,30.03,West,268,10.0,10.5,59,0.00,,CLR,0.00,VWS V14.01,2013-06-15 16:46:00,
2013-06-15 11:48:00,85.5,69.7,30.03,SSE,151,7.2,11.3,59,0.00,,CLR,0.00,VWS V14.01,2013-06-15 16:48:00,
2013-06-15 11:50:00,85.6,69.9,30.03,SW,221,4.4,8.1,59,0.00,,CLR,0.00,VWS V14.01,2013-06-15 16:50:00,
2013-06-15 11:52:00,85.6,69.9,30.03,South,169,7.8,8.7,59,0.00,,CLR,0.00,VWS V14.01,2013-06-15 16:52:00,
2013-06-15 11:53:00,85.8,70.1,30.03,SSE,153,7.8,8.7,59,0.00,,CLR,0.00,VWS V14.01,2013-06-15 16:53:00,
2013-06-15 11:54:00,85.8,70.7,30.03,SSE,165,4.4,8.1,61,0.00,,CLR,0.00,VWS V14.01,2013-06-15 16:54:00,
2013-06-15 11:56:00,86.0,70.2,30.03,SSE,165,6.7,7.6,59,0.00,,CLR,0.00,VWS V14.01,2013-06-15 16:56:00,
2013-06-15 11:58:00,86.0,70.2,30.00,SE,134,2.8,7.0,59,0.00,,CLR,0.00,VWS V14.01,2013-06-15 16:58:00,
2013-06-15 12:00:00,86.2,70.4,30.00,SSE,167,3.3,5.2,59,0.00,,CLR,0.00,VWS V14.01,2013-06-15 17:00:00,
2013-06-15 12:02:00,86.4,70.6,30.00,WSW,254,10.3,10.8,59,0.00,,CLR,0.00,VWS V14.01,2013-06-15 17:02:00,
2013-06-15 12:03:00,86.4,71.2,30.00,WSW,244,6.7,10.8,61,0.00,,CLR,0.00,VWS V14.01,2013-06-15 17:03:00,
2013-06-15 12:04:00,86.5,71.4,30.00,WNW,293,6.7,9.9,61,0.00,,CLR,0.00,VWS V14.01,2013-06-15 17:04:00,
2013-06-15 12:06:00,86.7,70.9,30.00,West,271,3.3,8.1,59,0.00,,CLR,0.00,VWS V14.01,2013-06-15 17:06:00,
2013-06-15 12:08:00,87.1,71.9,30.00,SW,222,4.4,9.9,61,0.00,,CLR,0.00,VWS V14.01,2013-06-15 17:08:00,
2013-06-15 12:10:00,87.1,71.9,30.00,SW,216,3.3,7.0,61,0.00,,CLR,0.00,VWS V14.01,2013-06-15 17:10:00,
2013-06-15 12:12:00,87.3,71.4,30.00,SW,218,6.1,9.9,59,0.00,,CLR,0.00,VWS V14.01,2013-06-15 17:12:00,
2013-06-15 12:13:00,87.3,71.4,30.00,SSW,210,6.7,9.9,59,0.00,,CLR,0.00,VWS V14.01,2013-06-15 17:13:00,
2013-06-15 12:14:00,87.3,71.4,30.00,SW,225,3.9,7.6,59,0.00,,CLR,0.00,VWS V14.01,2013-06-15 17:14:00,
2013-06-15 12:16:00,87.3,70.7,30.00,South,191,4.4,10.5,58,0.00,,CLR,0.00,VWS V14.01,2013-06-15 17:16:00,
2013-06-15 12:18:00,87.3,70.7,30.00,SSW,202,3.9,7.6,58,0.00,,CLR,0.00,VWS V14.01,2013-06-15 17:18:00,
2013-06-15 12:20:00,87.3,70.7,30.00,SSW,195,7.8,13.1,58,0.00,,CLR,0.00,VWS V14.01,2013-06-15 17:20:00,
2013-06-15 12:22:00,87.4,71.6,30.00,SSW,197,7.8,11.3,59,0.00,,CLR,0.00,VWS V14.01,2013-06-15 17:22:00,
2013-06-15 12:23:00,87.4,70.2,30.00,SW,224,7.2,11.3,57,0.00,,CLR,0.00,VWS V14.01,2013-06-15 17:23:00,
2013-06-15 12:24:00,87.4,70.2,30.00,South,189,3.9,9.9,57,0.00,,CLR,0.00,VWS V14.01,2013-06-15 17:24:00,
2013-06-15 12:26:00,87.3,69.4,30.00,SSW,210,7.8,10.5,55,0.00,,CLR,0.00,VWS V14.01,2013-06-15 17:26:00,
2013-06-15 12:28:00,87.1,70.6,30.00,SW,218,7.8,11.9,58,0.00,,CLR,0.00,VWS V14.01,2013-06-15 17:28:00,
2013-06-15 12:30:00,87.1,69.9,30.00,SW,226,10.8,12.5,57,0.00,,CLR,0.00,VWS V14.01,2013-06-15 17:30:00,
2013-06-15 12:32:00,87.1,69.9,30.00,SW,226,6.7,11.3,57,0.00,,CLR,0.00,VWS V14.01,2013-06-15 17:32:00,
2013-06-15 12:33:00,87.1,69.9,30.00,South,189,6.1,8.1,57,0.00,,CLR,0.00,VWS V14.01,2013-06-15 17:33:00,
2013-06-15 12:34:00,86.9,69.0,30.00,WSW,237,6.7,8.1,55,0.00,,CLR,0.00,VWS V14.01,2013-06-15 17:34:00,
2013-06-15 12:36:00,86.9,69.7,30.00,SSW,208,10.3,10.8,57,0.00,,CLR,0.00,VWS V14.01,2013-06-15 17:36:00,
2013-06-15 12:38:00,87.1,69.9,30.00,ESE,117,5.0,10.8,57,0.00,,CLR,0.00,VWS V14.01,2013-06-15 17:38:00,
2013-06-15 12:40:00,87.1,70.6,30.00,South,191,6.7,7.6,58,0.00,,CLR,0.00,VWS V14.01,2013-06-15 17:40:00,
2013-06-15 12:42:00,87.1,70.6,30.00,SSE,161,7.2,10.5,58,0.00,,CLR,0.00,VWS V14.01,2013-06-15 17:42:00,
2013-06-15 12:43:00,87.1,69.9,30.00,South,174,4.4,8.1,57,0.00,,CLR,0.00,VWS V14.01,2013-06-15 17:43:00,
2013-06-15 12:44:00,87.1,70.6,30.00,South,190,4.4,7.6,58,0.00,,CLR,0.00,VWS V14.01,2013-06-15 17:44:00,
2013-06-15 12:46:00,87.3,71.4,30.00,WSW,249,3.9,7.6,59,0.00,,CLR,0.00,VWS V14.01,2013-06-15 17:46:00,
2013-06-15 12:48:00,87.6,71.7,30.00,SW,222,4.4,8.1,59,0.00,,CLR,0.00,VWS V14.01,2013-06-15 17:48:00,
2013-06-15 12:50:00,87.8,71.2,30.00,WSW,257,6.7,10.8,58,0.00,,CLR,0.00,VWS V14.01,2013-06-15 17:50:00,
2013-06-15 12:52:00,88.0,71.4,30.00,SW,218,6.7,14.2,58,0.00,,CLR,0.00,VWS V14.01,2013-06-15 17:52:00,
2013-06-15 12:53:00,88.0,70.7,30.00,SE,129,6.7,9.9,57,0.00,,CLR,0.00,VWS V14.01,2013-06-15 17:53:00,
2013-06-15 12:54:00,88.0,70.7,30.00,SE,143,4.4,9.9,57,0.00,,CLR,0.00,VWS V14.01,2013-06-15 17:54:00,
2013-06-15 12:56:00,87.8,70.6,30.00,South,189,2.8,8.1,57,0.00,,CLR,0.00,VWS V14.01,2013-06-15 17:56:00,
2013-06-15 12:58:00,88.0,72.1,30.00,SSE,158,8.3,8.7,59,0.00,,CLR,0.00,VWS V14.01,2013-06-15 17:58:00,
2013-06-15 13:00:00,88.0,71.4,30.00,ESE,108,7.2,11.3,58,0.00,,CLR,0.00,VWS V14.01,2013-06-15 18:00:00,
2013-06-15 13:02:00,88.0,70.7,30.00,SE,133,10.0,10.5,57,0.00,,CLR,0.00,VWS V14.01,2013-06-15 18:02:00,
2013-06-15 13:03:00,88.0,70.7,30.00,ESE,111,6.1,10.5,57,0.00,,CLR,0.00,VWS V14.01,2013-06-15 18:03:00,
2013-06-15 13:04:00,88.0,70.7,30.00,ESE,107,5.0,10.5,57,0.00,,CLR,0.00,VWS V14.01,2013-06-15 18:04:00,
2013-06-15 13:06:00,88.0,71.4,30.00,South,188,0.0,5.2,58,0.00,,CLR,0.00,VWS V14.01,2013-06-15 18:06:00,
2013-06-15 13:08:00,88.3,72.4,30.00,SW,229,10.0,10.5,59,0.00,,CLR,0.00,VWS V14.01,2013-06-15 18:08:00,
2013-06-15 13:10:00,88.5,71.9,30.00,SSE,158,4.4,10.5,58,0.00,,CLR,0.00,VWS V14.01,2013-06-15 18:10:00,
2013-06-15 13:12:00,88.7,72.1,29.97,West,269,6.7,7.6,58,0.00,,CLR,0.00,VWS V14.01,2013-06-15 18:12:00,
2013-06-15 13:13:00,88.9,72.2,29.97,SW,236,5.0,13.1,58,0.00,,CLR,0.00,VWS V14.01,2013-06-15 18:13:00,
2013-06-15 13:14:00,88.9,72.2,29.97,WSW,244,4.4,13.1,58,0.00,,CLR,0.00,VWS V14.01,2013-06-15 18:14:00,
2013-06-15 13:16:00,88.9,72.2,29.97,SSW,198,3.3,7.6,58,0.00,,CLR,0.00,VWS V14.01,2013-06-15 18:16:00,
2013-06-15 13:18:00,88.9,71.6,29.97,SE,144,13.6,14.2,57,0.00,,CLR,0.00,VWS V14.01,2013-06-15 18:18:00,
2013-06-15 13:20:00,88.9,70.9,29.97,ESE,120,6.1,14.2,55,0.00,,CLR,0.00,VWS V14.01,2013-06-15 18:20:00,
2013-06-15 13:22:00,88.9,70.9,29.97,SSW,200,5.5,11.3,55,0.00,,CLR,0.00,VWS V14.01,2013-06-15 18:22:00,
2013-06-15 13:23:00,88.7,70.7,29.97,East,96,6.7,9.9,55,0.00,,CLR,0.00,VWS V14.01,2013-06-15 18:23:00,
2013-06-15 13:24:00,88.7,70.7,29.97,SSE,156,3.3,9.9,55,0.00,,CLR,0.00,VWS V14.01,2013-06-15 18:24:00,
2013-06-15 13:26:00,88.9,72.2,29.97,SSW,204,7.2,8.1,58,0.00,,CLR,0.00,VWS V14.01,2013-06-15 18:26:00,
2013-06-15 13:28:00,88.9,70.2,29.97,ESE,112,7.8,9.9,54,0.00,,CLR,0.00,VWS V14.01,2013-06-15 18:28:00,
2013-06-15 13:30:00,88.9,70.9,29.97,SW,218,10.3,10.8,55,0.00,,CLR,0.00,VWS V14.01,2013-06-15 18:30:00,
2013-06-15 13:32:00,88.5,69.1,29.97,ESE,108,7.2,10.8,53,0.00,,CLR,0.00,VWS V14.01,2013-06-15 18:32:00,
2013-06-15 13:33:00,88.5,69.8,29.97,SSE,157,10.0,10.5,54,0.00,,CLR,0.00,VWS V14.01,2013-06-15 18:33:00,
2013-06-15 13:34:00,88.5,69.8,29.97,SSE,162,7.8,10.5,54,0.00,,CLR,0.00,VWS V14.01,2013-06-15 18:34:00,
2013-06-15 13:36:00,88.5,71.9,29.97,SSW,196,3.3,8.1,58,0.00,,CLR,0.00,VWS V14.01,2013-06-15 18:36:00,
2013-06-15 13:38:00,88.7,70.7,29.97,SW,217,6.7,7.6,55,0.00,,CLR,0.00,VWS V14.01,2013-06-15 18:38:00,
2013-06-15 13:39:00,88.7,71.4,29.97,SE,141,5.0,8.1,57,0.00,,CLR,0.00,VWS V14.01,2013-06-15 18:39:00,
2013-06-15 13:40:00,88.7,70.7,29.97,South,184,3.9,11.3,55,0.00,,CLR,0.00,VWS V14.01,2013-06-15 18:40:00,
2013-06-15 13:42:00,88.7,70.0,29.97,SW,230,11.4,11.9,54,0.00,,CLR,0.00,VWS V14.01,2013-06-15 18:42:00,
2013-06-15 13:44:00,88.7,70.7,29.97,SW,226,6.7,13.1,55,0.00,,CLR,0.00,VWS V14.01,2013-06-15 18:44:00,
2013-06-15 13:46:00,88.7,71.4,29.97,South,184,7.2,11.3,57,0.00,,CLR,0.00,VWS V14.01,2013-06-15 18:46:00,
2013-06-15 13:48:00,88.5,70.5,29.97,South,180,10.8,11.3,55,0.00,,CLR,0.00,VWS V14.01,2013-06-15 18:48:00,
2013-06-15 13:49:00,88.5,70.5,29.97,SSE,159,5.0,11.3,55,0.00,,CLR,0.00,VWS V14.01,2013-06-15 18:49:00,
2013-06-15 13:50:00,88.5,70.5,29.97,SSW,198,7.2,13.1,55,0.00,,CLR,0.00,VWS V14.01,2013-06-15 18:50:00,
2013-06-15 13:52:00,88.2,69.5,29.97,ESE,112,5.0,8.1,54,0.00,,CLR,0.00,VWS V14.01,2013-06-15 18:52:00,
2013-06-15 13:54:00,88.2,70.2,29.97,SW,230,7.8,8.1,55,0.00,,CLR,0.00,VWS V14.01,2013-06-15 18:54:00,
2013-06-15 13:56:00,88.2,70.2,29.97,SW,220,9.4,14.2,55,0.00,,CLR,0.00,VWS V14.01,2013-06-15 18:56:00,
2013-06-15 13:58:00,88.0,70.0,29.97,WSW,244,12.5,16.0,55,0.00,,CLR,0.00,VWS V14.01,2013-06-15 18:58:00,
2013-06-15 13:59:00,88.0,70.0,29.97,South,191,11.4,16.0,55,0.00,,BKN075,0.00,VWS V14.01,2013-06-15 18:59:00,
2013-06-15 14:00:00,88.0,70.0,29.97,SSW,211,12.5,14.2,55,0.00,,CLR,0.00,VWS V14.01,2013-06-15 19:00:00,
2013-06-15 14:02:00,88.2,70.2,29.97,SSW,208,10.8,17.2,55,0.00,,CLR,0.00,VWS V14.01,2013-06-15 19:02:00,
2013-06-15 14:04:00,88.3,70.4,29.97,WSW,243,5.0,16.0,55,0.00,,BKN075,0.00,VWS V14.01,2013-06-15 19:04:00,
2013-06-15 14:06:00,88.7,71.4,29.97,SW,233,7.8,10.5,57,0.00,,CLR,0.00,VWS V14.01,2013-06-15 19:06:00,
2013-06-15 14:08:00,88.9,70.9,29.97,SSW,197,10.8,13.1,55,0.00,,CLR,0.00,VWS V14.01,2013-06-15 19:08:00,
2013-06-15 14:09:00,88.9,70.9,29.97,SW,216,6.7,13.1,55,0.00,,BKN075,0.00,VWS V14.01,2013-06-15 19:09:00,
2013-06-15 14:10:00,89.1,71.0,29.97,WSW,250,10.8,14.2,55,0.00,,CLR,0.00,VWS V14.01,2013-06-15 19:10:00,
2013-06-15 14:12:00,89.2,71.2,29.97,WSW,240,6.7,11.3,55,0.00,,CLR,0.00,VWS V14.01,2013-06-15 19:12:00,
2013-06-15 14:14:00,89.2,69.8,29.97,SE,133,9.4,16.6,53,0.00,,BKN075,0.00,VWS V14.01,2013-06-15 19:14:00,
2013-06-15 14:16:00,89.2,69.8,29.97,WSW,238,7.2,10.8,53,0.00,,CLR,0.00,VWS V14.01,2013-06-15 19:16:00,
2013-06-15 14:18:00,89.2,69.8,29.97,SSE,149,6.1,10.8,53,0.00,,CLR,0.00,VWS V14.01,2013-06-15 19:18:00,
2013-06-15 14:19:00,89.2,70.5,29.97,South,169,5.0,7.6,54,0.00,,FEW075,0.00,VWS V14.01,2013-06-15 19:19:00,
2013-06-15 14:20:00,89.1,70.3,29.97,SSE,163,10.3,11.3,54,0.00,,CLR,0.00,VWS V14.01,2013-06-15 19:20:00,
2013-06-15 14:22:00,88.7,69.3,29.97,South,186,7.2,10.8,53,0.00,,CLR,0.00,VWS V14.01,2013-06-15 19:22:00,
2013-06-15 14:24:00,88.5,69.1,29.97,SSW,194,7.8,10.5,53,0.00,,FEW075,0.00,VWS V14.01,2013-06-15 19:24:00,
2013-06-15 14:26:00,88.3,69.7,29.97,SSE,149,9.4,10.8,54,0.00,,CLR,0.00,VWS V14.01,2013-06-15 19:26:00,
2013-06-15 14:28:00,88.2,69.5,29.97,South,183,7.2,10.8,54,0.00,,CLR,0.00,VWS V14.01,2013-06-15 19:28:00,
2013-06-15 14:29:00,88.2,68.8,29.97,SSW,203,12.5,13.7,53,0.00,,FEW075,0.00,VWS V14.01,2013-06-15 19:29:00,
2013-06-15 14:30:00,88.0,68.6,29.97,SSE,149,4.4,13.7,53,0.00,,CLR,0.00,VWS V14.01,2013-06-15 19:30:00,
2013-06-15 14:32:00,87.8,68.4,29.97,South,180,7.2,10.5,53,0.00,,CLR,0.00,VWS V14.01,2013-06-15 19:32:00,
2013-06-15 14:34:00,87.6,69.7,29.97,SW,231,7.2,11.3,55,0.00,,FEW075,0.00,VWS V14.01,2013-06-15 19:34:00,
2013-06-15 14:36:00,87.6,69.7,29.97,SW,217,7.8,12.5,55,0.00,,CLR,0.00,VWS V14.01,2013-06-15 19:36:00,
2013-06-15 14:38:00,87.6,69.7,29.97,South,191,3.9,13.1,55,0.00,,CLR,0.00,VWS V14.01,2013-06-15 19:38:00,
2013-06-15 14:39:00,87.6,70.4,29.97,West,264,6.7,12.5,57,0.00,,FEW075,0.00,VWS V14.01,2013-06-15 19:39:00,
2013-06-15 14:40:00,87.6,69.7,29.97,SSW,194,10.3,13.1,55,0.00,,CLR,0.00,VWS V14.01,2013-06-15 19:40:00,
2013-06-15 14:42:00,87.8,69.2,29.94,South,190,6.1,13.1,54,0.00,,CLR,0.00,VWS V14.01,2013-06-15 19:42:00,
2013-06-15 14:44:00,87.8,69.2,29.94,SW,219,9.4,11.3,54,0.00,,FEW075,0.00,VWS V14.01,2013-06-15 19:44:00,
2013-06-15 14:46:00,88.0,69.3,29.94,South,183,9.4,11.3,54,0.00,,CLR,0.00,VWS V14.01,2013-06-15 19:46:00,
2013-06-15 14:48:00,88.0,69.3,29.94,WSW,240,13.0,17.2,54,0.00,,CLR,0.00,VWS V14.01,2013-06-15 19:48:00,
2013-06-15 14:49:00,88.2,69.5,29.94,SW,230,10.8,17.2,54,0.00,,FEW075,0.00,VWS V14.01,2013-06-15 19:49:00,
2013-06-15 14:50:00,88.2,69.5,29.94,WSW,256,15.8,17.2,54,0.00,,CLR,0.00,VWS V14.01,2013-06-15 19:50:00,
2013-06-15 14:52:00,88.2,68.8,29.94,WSW,245,9.4,16.6,53,0.00,,CLR,0.00,VWS V14.01,2013-06-15 19:52:00,
2013-06-15 14:54:00,88.2,68.8,29.94,SW,227,7.2,17.2,53,0.00,,FEW075,0.00,VWS V14.01,2013-06-15 19:54:00,
2013-06-15 14:56:00,88.0,67.9,29.94,South,185,18.0,18.9,51,0.00,,CLR,0.00,VWS V14.01,2013-06-15 19:56:00,
2013-06-15 14:58:00,88.0,68.6,29.94,SSW,206,12.5,18.9,53,0.00,,CLR,0.00,VWS V14.01,2013-06-15 19:58:00,
2013-06-15 14:59:00,87.8,68.4,29.94,SW,221,13.6,17.2,53,0.00,,SCT070,0.00,VWS V14.01,2013-06-15 19:59:00,
2013-06-15 15:00:00,87.8,68.4,29.94,SW,224,10.3,17.2,53,0.00,,CLR,0.00,VWS V14.01,2013-06-15 20:00:00,
2013-06-15 15:02:00,87.6,68.3,29.94,South,187,7.8,16.6,53,0.00,,CLR,0.00,VWS V14.01,2013-06-15 20:02:00,
2013-06-15 15:04:00,87.6,68.3,29.94,South,191,10.3,17.7,53,0.00,,SCT070,0.00,VWS V14.01,2013-06-15 20:04:00,
2013-06-15 15:06:00,87.4,68.1,29.94,SSE,153,7.8,16.0,53,0.00,,CLR,0.00,VWS V14.01,2013-06-15 20:06:00,
2013-06-15 15:08:00,87.4,68.8,29.94,SSE,151,6.7,10.5,54,0.00,,CLR,0.00,VWS V14.01,2013-06-15 20:08:00,
2013-06-15 15:09:00,87.3,67.9,29.94,South,189,13.0,13.7,53,0.00,,SCT070,0.00,VWS V14.01,2013-06-15 20:09:00,
2013-06-15 15:10:00,87.3,67.9,29.94,South,187,7.2,16.0,53,0.00,,CLR,0.00,VWS V14.01,2013-06-15 20:10:00,
2013-06-15 15:12:00,87.1,67.8,29.94,WSW,238,16.4,20.1,53,0.00,,CLR,0.00,VWS V14.01,2013-06-15 20:12:00,
2013-06-15 15:14:00,87.1,68.5,29.94,SSW,196,10.3,13.1,54,0.00,,SCT070,0.00,VWS V14.01,2013-06-15 20:14:00,
2013-06-15 15:16:00,87.1,68.5,29.94,ESE,111,9.4,10.8,54,0.00,,CLR,0.00,VWS V14.01,2013-06-15 20:16:00,
2013-06-15 15:18:00,87.1,68.5,29.94,SSE,164,7.2,16.6,54,0.00,,CLR,0.00,VWS V14.01,2013-06-15 20:18:00,
2013-06-15 15:19:00,87.1,68.5,29.94,SSE,154,9.4,13.1,54,0.00,,CLR,0.00,VWS V14.01,2013-06-15 20:19:00,
2013-06-15 15:20:00,87.1,68.5,29.94,SSE,163,5.0,13.1,54,0.00,,CLR,0.00,VWS V14.01,2013-06-15 20:20:00,
2013-06-15 15:22:00,87.1,68.5,29.94,SE,133,5.0,16.0,54,0.00,,CLR,0.00,VWS V14.01,2013-06-15 20:22:00,
2013-06-15 15:24:00,86.7,68.9,29.94,SE,145,5.0,11.3,55,0.00,,CLR,0.00,VWS V14.01,2013-06-15 20:24:00,
2013-06-15 15:26:00,86.5,69.4,29.94,SE,138,7.2,11.3,57,0.00,,CLR,0.00,VWS V14.01,2013-06-15 20:26:00,
2013-06-15 15:28:00,85.6,69.2,29.97,SSE,148,6.1,8.1,58,0.00,,CLR,0.00,VWS V14.01,2013-06-15 20:28:00,
2013-06-15 15:29:00,85.1,69.4,29.97,SE,139,6.7,9.9,59,0.00,,CLR,0.00,VWS V14.01,2013-06-15 20:29:00,
2013-06-15 15:30:00,84.9,69.8,29.97,East,92,5.0,9.9,61,0.00,,CLR,0.00,VWS V14.01,2013-06-15 20:30:00,
2013-06-15 15:32:00,84.2,69.2,29.97,ENE,66,6.1,9.9,61,0.00,,CLR,0.00,VWS V14.01,2013-06-15 20:32:00,
2013-06-15 15:34:00,83.7,69.9,29.97,NE,42,4.4,7.6,63,0.00,,CLR,0.00,VWS V14.01,2013-06-15 20:34:00,
2013-06-15 15:36:00,83.1,70.0,29.97,SE,128,7.8,8.1,65,0.00,,CLR,0.00,VWS V14.01,2013-06-15 20:36:00,
2013-06-15 15:38:00,82.9,69.8,29.97,East,86,3.3,8.1,65,0.00,,CLR,0.00,VWS V14.01,2013-06-15 20:38:00,
2013-06-15 15:39:00,82.6,70.1,29.97,ESE,112,3.3,5.2,66,0.00,,FEW050,0.00,VWS V14.01,2013-06-15 20:39:00,
2013-06-15 15:40:00,82.6,70.1,29.97,SSE,166,5.0,5.2,66,0.00,,CLR,0.00,VWS V14.01,2013-06-15 20:40:00,
2013-06-15 15:42:00,82.6,71.2,29.97,ESE,104,3.9,8.1,69,0.00,,CLR,0.00,VWS V14.01,2013-06-15 20:42:00,
2013-06-15 15:44:00,82.4,71.1,29.97,SSE,165,8.9,10.8,69,0.00,,FEW050,0.00,VWS V14.01,2013-06-15 20:44:00,
2013-06-15 15:46:00,82.4,71.1,29.97,ESE,109,5.0,10.8,69,0.00,,CLR,0.00,VWS V14.01,2013-06-15 20:46:00,
2013-06-15 15:48:00,82.2,70.9,29.97,ESE,122,5.0,7.0,69,0.00,,CLR,0.00,VWS V14.01,2013-06-15 20:48:00,
2013-06-15 15:49:00,82.0,71.3,29.97,SSE,154,5.5,5.8,70,0.00,,FEW050,0.00,VWS V14.01,2013-06-15 20:49:00,
2013-06-15 15:50:00,82.0,71.3,29.97,ESE,118,6.1,6.4,70,0.00,,CLR,0.00,VWS V14.01,2013-06-15 20:50:00,
2013-06-15 15:52:00,82.0,71.3,29.97,ESE,120,4.4,6.4,70,0.00,,CLR,0.00,VWS V14.01,2013-06-15 20:52:00,
2013-06-15 15:54:00,81.9,71.1,29.97,SSE,155,5.0,6.4,70,0.00,,FEW050,0.00,VWS V14.01,2013-06-15 20:54:00,
2013-06-15 15:56:00,81.9,71.1,29.97,SE,145,3.9,7.6,70,0.00,,CLR,0.00,VWS V14.01,2013-06-15 20:56:00,
2013-06-15 15:58:00,81.7,71.5,29.97,ESE,115,7.2,8.1,71,0.00,,CLR,0.00,VWS V14.01,2013-06-15 20:58:00,
2013-06-15 15:59:00,81.7,71.5,29.97,East,95,3.9,10.8,71,0.00,,FEW050,0.00,VWS V14.01,2013-06-15 20:59:00,
2013-06-15 16:00:00,81.7,71.5,29.97,ESE,119,3.9,10.8,71,0.00,,CLR,0.00,VWS V14.01,2013-06-15 21:00:00,
2013-06-15 16:02:00,81.7,71.5,29.97,East,92,6.7,9.3,71,0.00,,CLR,0.00,VWS V14.01,2013-06-15 21:02:00,
2013-06-15 16:04:00,81.5,71.8,29.97,ESE,122,0.0,6.4,73,0.00,,FEW050,0.00,VWS V14.01,2013-06-15 21:04:00,
2013-06-15 16:06:00,81.5,71.8,29.97,ESE,123,0.0,2.9,73,0.00,,CLR,0.00,VWS V14.01,2013-06-15 21:06:00,
2013-06-15 16:08:00,81.5,72.4,29.97,ESE,117,3.9,4.1,74,0.00,,CLR,0.00,VWS V14.01,2013-06-15 21:08:00,
2013-06-15 16:09:00,81.3,71.7,29.97,ESE,115,4.4,4.7,73,0.00,,FEW050,0.00,VWS V14.01,2013-06-15 21:09:00,
2013-06-15 16:10:00,81.3,71.7,29.97,East,86,3.9,4.7,73,0.00,,CLR,0.00,VWS V14.01,2013-06-15 21:10:00,
2013-06-15 16:12:00,81.3,71.7,29.97,North,357,4.4,7.0,73,0.00,,CLR,0.00,VWS V14.01,2013-06-15 21:12:00,
2013-06-15 16:14:00,81.3,72.2,29.97,WNW,286,2.8,5.2,74,0.00,,CLR,0.00,VWS V14.01,2013-06-15 21:14:00,
2013-06-15 16:15:00,81.3,72.2,29.97,SW,219,3.3,4.1,74,0.00,,FEW050,0.00,VWS V14.01,2013-06-15 21:15:00,
2013-06-15 16:16:00,81.3,72.2,29.97,SSE,152,3.9,4.1,74,0.00,,CLR,0.00,VWS V14.01,2013-06-15 21:16:00,
2013-06-15 16:18:00,81.3,72.2,29.97,SSE,153,0.0,4.1,74,0.00,,CLR,0.00,VWS V14.01,2013-06-15 21:18:00,
2013-06-15 16:19:00,81.3,72.7,29.97,SSE,152,0.0,0.0,75,0.00,,FEW060,0.00,VWS V14.01,2013-06-15 21:19:00,
2013-06-15 16:20:00,81.3,72.7,29.97,SSE,152,0.0,0.0,75,0.00,,CLR,0.00,VWS V14.01,2013-06-15 21:20:00,
2013-06-15 16:22:00,81.5,72.9,29.97,SSE,152,3.9,4.1,75,0.00,,CLR,0.00,VWS V14.01,2013-06-15 21:22:00,
2013-06-15 16:24:00,81.5,72.9,29.97,ENE,78,3.3,4.1,75,0.00,,CLR,0.00,VWS V14.01,2013-06-15 21:24:00,
2013-06-15 16:25:00,81.5,72.9,29.97,ENE,78,3.9,4.1,75,0.00,,FEW060,0.00,VWS V14.01,2013-06-15 21:25:00,
2013-06-15 16:26:00,81.5,72.9,29.97,ENE,78,0.0,4.1,75,0.00,,CLR,0.00,VWS V14.01,2013-06-15 21:26:00,
2013-06-15 16:28:00,81.7,73.1,29.97,NNW,343,0.0,0.0,75,0.00,,CLR,0.00,VWS V14.01,2013-06-15 21:28:00,
2013-06-15 16:30:00,81.7,73.1,29.97,SW,215,0.0,0.0,75,0.00,,FEW060,0.00,VWS V14.01,2013-06-15 21:30:00,
2013-06-15 16:32:00,81.9,73.3,29.97,SW,232,7.2,7.6,75,0.00,,CLR,0.00,VWS V14.01,2013-06-15 21:32:00,
2013-06-15 16:34:00,82.2,72.5,29.97,SW,236,7.2,10.8,73,0.00,,CLR,0.00,VWS V14.01,2013-06-15 21:34:00,
2013-06-15 16:35:00,82.2,72.6,29.97,West,260,6.7,10.8,73,0.00,,FEW060,0.00,VWS V14.01,2013-06-15 21:35:00,
2013-06-15 16:36:00,82.4,72.2,29.97,WNW,286,7.2,10.8,71,0.00,,CLR,0.00,VWS V14.01,2013-06-15 21:36:00,
2013-06-15 16:38:00,82.6,71.8,29.97,SW,235,7.2,10.5,70,0.00,,CLR,0.00,VWS V14.01,2013-06-15 21:38:00,
2013-06-15 16:40:00,82.8,71.4,29.97,WSW,246,7.2,7.6,69,0.00,,FEW060,0.00,VWS V14.01,2013-06-15 21:40:00,
2013-06-15 16:42:00,82.9,71.0,29.97,SW,222,7.2,10.8,67,0.00,,CLR,0.00,VWS V14.01,2013-06-15 21:42:00,
2013-06-15 16:44:00,83.1,71.2,29.97,WSW,246,10.8,16.0,67,0.00,,CLR,0.00,VWS V14.01,2013-06-15 21:44:00,
2013-06-15 16:45:00,83.1,71.2,29.97,SW,227,9.4,16.0,67,0.00,,CLR,0.00,VWS V14.01,2013-06-15 21:45:00,
2013-06-15 16:46:00,83.1,70.6,29.97,SW,216,11.4,16.0,66,0.00,,CLR,0.00,VWS V14.01,2013-06-15 21:46:00,
2013-06-15 16:48:00,83.3,70.8,29.97,SSW,209,10.8,13.1,66,0.00,,CLR,0.00,VWS V14.01,2013-06-15 21:48:00,
2013-06-15 16:50:00,83.3,70.2,29.97,SW,230,13.0,13.7,65,0.00,,CLR,0.00,VWS V14.01,2013-06-15 21:50:00,
2013-06-15 16:52:00,83.3,70.2,29.97,WSW,245,14.1,14.8,65,0.00,,CLR,0.00,VWS V14.01,2013-06-15 21:52:00,
2013-06-15 16:54:00,83.5,69.7,29.97,SSW,211,10.0,14.8,63,0.00,,CLR,0.00,VWS V14.01,2013-06-15 21:54:00,
2013-06-15 16:55:00,83.5,69.1,29.97,SW,233,10.0,10.5,62,0.00,,CLR,0.00,VWS V14.01,2013-06-15 21:55:00,
2013-06-15 16:56:00,83.5,69.7,29.97,South,180,10.3,11.3,63,0.00,,CLR,0.00,VWS V14.01,2013-06-15 21:56:00,
2013-06-15 16:58:00,83.5,69.1,29.97,WSW,249,7.8,13.7,62,0.00,,CLR,0.00,VWS V14.01,2013-06-15 21:58:00,
2013-06-15 17:00:00,83.5,69.1,29.97,WSW,237,7.2,10.8,62,0.00,,CLR,0.00,VWS V14.01,2013-06-15 22:00:00,
2013-06-15 17:02:00,83.5,69.1,29.97,SSW,202,6.1,10.5,62,0.00,,CLR,0.00,VWS V14.01,2013-06-15 22:02:00,
2013-06-15 17:04:00,83.5,69.1,29.97,WSW,245,5.0,9.3,62,0.00,,CLR,0.00,VWS V14.01,2013-06-15 22:04:00,
2013-06-15 17:05:00,83.5,69.1,29.97,SW,235,7.8,10.5,62,0.00,,CLR,0.00,VWS V14.01,2013-06-15 22:05:00,
2013-06-15 17:06:00,83.5,69.1,29.97,SW,218,7.2,10.8,62,0.00,,CLR,0.00,VWS V14.01,2013-06-15 22:06:00,
2013-06-15 17:08:00,83.5,69.1,29.97,WSW,245,10.3,10.8,62,0.00,,CLR,0.00,VWS V14.01,2013-06-15 22:08:00,
2013-06-15 17:10:00,83.5,69.1,29.97,WSW,251,4.4,11.3,62,0.00,,FEW043,0.00,VWS V14.01,2013-06-15 22:10:00,
2013-06-15 17:12:00,83.5,68.5,29.97,SW,215,11.9,12.5,61,0.00,,CLR,0.00,VWS V14.01,2013-06-15 22:12:00,
2013-06-15 17:14:00,83.5,68.5,29.97,SW,221,7.8,13.7,61,0.00,,CLR,0.00,VWS V14.01,2013-06-15 22:14:00,
2013-06-15 17:15:00,83.5,68.5,29.97,SW,219,7.2,11.3,61,0.00,,FEW043,0.00,VWS V14.01,2013-06-15 22:15:00,
2013-06-15 17:16:00,83.5,68.5,29.97,SW,227,7.2,9.9,61,0.00,,CLR,0.00,VWS V14.01,2013-06-15 22:16:00,
2013-06-15 17:18:00,83.5,68.5,29.97,SW,229,10.0,10.5,61,0.00,,CLR,0.00,VWS V14.01,2013-06-15 22:18:00,
2013-06-15 17:20:00,83.5,68.5,29.97,SW,234,6.7,9.9,61,0.00,,FEW043,0.00,VWS V14.01,2013-06-15 22:20:00,
2013-06-15 17:22:00,83.5,69.1,29.97,SW,219,7.2,7.6,62,0.00,,CLR,0.00,VWS V14.01,2013-06-15 22:22:00,
2013-06-15 17:24:00,83.5,69.1,29.97,SW,222,4.4,7.6,62,0.00,,CLR,0.00,VWS V14.01,2013-06-15 22:24:00,
2013-06-15 17:25:00,83.5,69.1,29.97,SW,229,7.2,8.1,62,0.00,,FEW043,0.00,VWS V14.01,2013-06-15 22:25:00,
2013-06-15 17:26:00,83.5,69.1,29.97,SSW,194,7.8,8.1,62,0.00,,CLR,0.00,VWS V14.01,2013-06-15 22:26:00,
2013-06-15 17:28:00,83.5,69.1,29.97,WSW,241,6.1,8.1,62,0.00,,CLR,0.00,VWS V14.01,2013-06-15 22:28:00,
2013-06-15 17:30:00,83.3,68.9,29.97,WSW,245,6.7,7.0,62,0.00,,CLR,0.00,VWS V14.01,2013-06-15 22:30:00,
2013-06-15 17:32:00,83.3,68.9,29.97,SW,225,10.0,10.5,62,0.00,,CLR,0.00,VWS V14.01,2013-06-15 22:32:00,
2013-06-15 17:34:00,83.3,68.9,29.97,SSW,210,10.8,11.3,62,0.00,,CLR,0.00,VWS V14.01,2013-06-15 22:34:00,
2013-06-15 17:35:00,83.3,68.9,29.97,SW,227,6.7,11.3,62,0.00,,CLR,0.00,VWS V14.01,2013-06-15 22:35:00,
2013-06-15 17:36:00,83.3,68.9,29.97,SW,223,7.2,11.3,62,0.00,,CLR,0.00,VWS V14.01,2013-06-15 22:36:00,
2013-06-15 17:38:00,83.3,68.9,29.97,SW,220,7.8,8.1,62,0.00,,CLR,0.00,VWS V14.01,2013-06-15 22:38:00,
2013-06-15 17:40:00,83.3,68.9,29.97,WSW,252,9.4,9.9,62,0.00,,FEW039,0.00,VWS V14.01,2013-06-15 22:40:00,
2013-06-15 17:42:00,83.3,68.9,29.97,WSW,245,9.4,10.8,62,0.00,,CLR,0.00,VWS V14.01,2013-06-15 22:42:00,
2013-06-15 17:44:00,83.3,69.6,29.97,SW,220,7.8,11.3,63,0.00,,CLR,0.00,VWS V14.01,2013-06-15 22:44:00,
2013-06-15 17:45:00,83.3,68.9,29.97,WSW,251,7.8,10.8,62,0.00,,FEW039,0.00,VWS V14.01,2013-06-15 22:45:00,
2013-06-15 17:46:00,83.3,68.9,29.97,West,275,6.7,9.9,62,0.00,,CLR,0.00,VWS V14.01,2013-06-15 22:46:00,
2013-06-15 17:48:00,83.3,69.6,29.97,SW,236,10.0,10.5,63,0.00,,CLR,0.00,VWS V14.01,2013-06-15 22:48:00,
2013-06-15 17:50:00,83.1,69.4,29.97,West,278,7.8,12.5,63,0.00,,FEW039,0.00,VWS V14.01,2013-06-15 22:50:00,
2013-06-15 17:52:00,83.1,70.0,29.97,West,273,9.4,9.9,65,0.00,,CLR,0.00,VWS V14.01,2013-06-15 22:52:00,
2013-06-15 17:54:00,82.9,71.0,29.97,West,280,15.3,17.2,67,0.00,,CLR,0.00,VWS V14.01,2013-06-15 22:54:00,
2013-06-15 17:55:00,82.8,71.4,29.97,WNW,291,10.8,17.2,69,0.00,,FEW039,0.00,VWS V14.01,2013-06-15 22:55:00,
2013-06-15 17:56:00,82.8,71.4,29.97,WNW,296,12.5,16.0,69,0.00,,CLR,0.00,VWS V14.01,2013-06-15 22:56:00,
2013-06-15 17:58:00,82.4,71.1,29.97,WNW,298,6.7,16.0,69,0.00,,CLR,0.00,VWS V14.01,2013-06-15 22:58:00,
2013-06-15 18:00:00,82.0,71.3,29.97,WNW,294,10.3,13.1,70,0.00,,BKN047,0.00,VWS V14.01,2013-06-15 23:00:00,
2013-06-15 18:02:00,81.7,70.9,29.97,WNW,287,4.4,10.8,70,0.00,,CLR,0.00,VWS V14.01,2013-06-15 23:02:00,
2013-06-15 18:04:00,81.3,71.1,29.97,WNW,301,10.8,11.3,71,0.00,,CLR,0.00,VWS V14.01,2013-06-15 23:04:00,
2013-06-15 18:05:00,81.1,71.0,29.97,WNW,294,10.3,11.9,71,0.00,,BKN047,0.00,VWS V14.01,2013-06-15 23:05:00,
2013-06-15 18:06:00,81.1,71.0,29.97,WNW,302,13.0,13.7,71,0.00,,CLR,0.00,VWS V14.01,2013-06-15 23:06:00,
2013-06-15 18:08:00,80.8,70.6,29.97,NW,311,7.8,11.3,71,0.00,,CLR,0.00,VWS V14.01,2013-06-15 23:08:00,
2013-06-15 18:10:00,80.6,70.4,29.97,North,353,4.4,12.5,71,0.00,,CLR,0.00,VWS V14.01,2013-06-15 23:10:00,
2013-06-15 18:11:00,80.4,70.3,29.97,WNW,301,4.4,10.5,71,0.00,,BKN047,0.00,VWS V14.01,2013-06-15 23:11:00,
2013-06-15 18:12:00,80.4,70.3,29.97,WNW,291,7.2,8.1,71,0.00,,CLR,0.00,VWS V14.01,2013-06-15 23:12:00,
2013-06-15 18:14:00,80.2,70.1,29.97,WNW,300,6.7,10.5,71,0.00,,CLR,0.00,VWS V14.01,2013-06-15 23:14:00,
2013-06-15 18:16:00,80.2,70.6,29.97,NW,324,6.1,8.1,73,0.00,,BKN047,0.00,VWS V14.01,2013-06-15 23:16:00,
2013-06-15 18:18:00,80.1,70.5,29.97,WNW,302,6.7,11.3,73,0.00,,CLR,0.00,VWS V14.01,2013-06-15 23:18:00,
2013-06-15 18:20:00,80.1,71.0,29.97,NW,318,4.4,7.0,74,0.00,,CLR,0.00,VWS V14.01,2013-06-15 23:20:00,
2013-06-15 18:21:00,80.1,71.0,29.97,West,272,6.1,8.1,74,0.00,,OVC045,0.00,VWS V14.01,2013-06-15 23:21:00,
2013-06-15 18:22:00,79.9,70.8,29.97,NW,325,13.6,14.2,74,0.00,,CLR,0.00,VWS V14.01,2013-06-15 23:22:00,
2013-06-15 18:24:00,79.9,71.3,29.97,WNW,295,13.6,14.2,75,0.00,,CLR,0.00,VWS V14.01,2013-06-15 23:24:00,
2013-06-15 18:26:00,79.5,70.5,29.97,NE,35,7.8,14.2,74,0.00,,OVC045,0.00,VWS V14.01,2013-06-15 23:26:00,
2013-06-15 18:28:00,79.2,70.1,30.00,West,277,10.3,17.2,74,0.00,,CLR,0.00,VWS V14.01,2013-06-15 23:28:00,
2013-06-15 18:30:00,78.8,70.3,30.00,West,281,12.5,17.2,75,0.00,,CLR,0.00,VWS V14.01,2013-06-15 23:30:00,
2013-06-15 18:31:00,78.6,70.1,30.00,West,271,9.4,13.7,75,0.00,,OVC045,0.00,VWS V14.01,2013-06-15 23:31:00,
2013-06-15 18:32:00,78.4,70.0,30.00,West,277,6.1,13.7,75,0.00,,CLR,0.00,VWS V14.01,2013-06-15 23:32:00,
2013-06-15 18:34:00,78.1,70.1,30.00,NNW,330,6.1,9.9,77,0.00,,CLR,0.00,VWS V14.01,2013-06-15 23:34:00,
2013-06-15 18:36:00,77.5,69.6,30.00,WNW,301,3.9,10.8,77,0.00,,OVC045,0.00,VWS V14.01,2013-06-15 23:36:00,
2013-06-15 18:38:00,77.4,69.9,30.00,West,280,12.5,17.2,78,0.00,,CLR,0.00,VWS V14.01,2013-06-15 23:38:00,
2013-06-15 18:40:00,77.0,70.1,30.00,WNW,284,6.7,13.1,79,0.00,,CLR,0.00,VWS V14.01,2013-06-15 23:40:00,
2013-06-15 18:41:00,76.8,69.9,30.00,WNW,297,15.3,16.0,79,0.00,,OVC037,0.00,VWS V14.01,2013-06-15 23:41:00,
2013-06-15 18:42:00,76.8,69.9,30.00,NE,38,7.8,16.0,79,0.00,,CLR,0.00,VWS V14.01,2013-06-15 23:42:00,
2013-06-15 18:44:00,76.5,70.0,30.00,NNE,31,3.3,8.1,81,0.00,,CLR,0.00,VWS V14.01,2013-06-15 23:44:00,
2013-06-15 18:46:00,76.3,69.8,30.00,North,3,8.9,9.3,81,0.00,,OVC037,0.00,VWS V14.01,2013-06-15 23:46:00,
2013-06-15 18:48:00,76.1,69.7,30.00,North,7,6.7,10.5,81,0.00,,CLR,0.00,VWS V14.01,2013-06-15 23:48:00,
2013-06-15 18:50:00,76.1,70.2,30.00,North,353,13.6,14.2,82,0.00,,CLR,0.00,VWS V14.01,2013-06-15 23:50:00,
2013-06-15 18:51:00,75.9,70.0,30.00,NNE,20,12.5,14.2,82,0.00,,OVC037,0.00,VWS V14.01,2013-06-15 23:51:00,
2013-06-15 18:52:00,75.9,70.0,30.00,NE,34,7.2,14.2,82,0.00,,CLR,0.00,VWS V14.01,2013-06-15 23:52:00,
2013-06-15 18:54:00,75.7,69.8,30.00,NNW,340,10.0,14.2,82,0.00,,CLR,0.00,VWS V14.01,2013-06-15 23:54:00,
2013-06-15 18:56:00,75.4,69.9,30.00,North,0,5.0,10.5,83,0.00,,OVC037,0.00,VWS V14.01,2013-06-15 23:56:00,
2013-06-15 18:58:00,75.2,69.7,30.00,NNE,26,4.4,13.1,83,0.00,,CLR,0.00,VWS V14.01,2013-06-15 23:58:00,
2013-06-15 19:00:00,75.0,69.6,30.00,NNE,17,9.4,9.9,83,0.00,,CLR,0.00,VWS V14.01,2013-06-16 00:00:00,
2013-06-15 19:01:00,74.8,69.8,30.00,North,357,7.2,10.8,84,0.00,,OVC037,0.00,VWS V14.01,2013-06-16 00:01:00,
2013-06-15 19:02:00,74.7,69.7,30.00,NNE,16,6.7,10.8,84,0.00,,CLR,0.00,VWS V14.01,2013-06-16 00:02:00,
2013-06-15 19:04:00,74.5,69.9,30.00,NE,55,10.0,12.5,86,0.00,,CLR,0.00,VWS V14.01,2013-06-16 00:04:00,
2013-06-15 19:06:00,74.3,70.2,30.00,NE,38,9.4,16.6,87,0.00,,OVC037,0.00,VWS V14.01,2013-06-16 00:06:00,
2013-06-15 19:08:00,74.1,70.1,30.00,NNW,346,6.7,10.5,87,0.00,,CLR,0.00,VWS V14.01,2013-06-16 00:08:00,
2013-06-15 19:10:00,73.9,69.9,30.00,North,1,9.4,13.1,87,0.00,,CLR,0.00,VWS V14.01,2013-06-16 00:10:00,
2013-06-15 19:11:00,73.8,69.7,30.00,NNE,31,3.9,9.9,87,0.00,,OVC037,0.00,VWS V14.01,2013-06-16 00:11:00,
2013-06-15 19:12:00,73.8,69.7,30.00,NNE,28,3.3,9.9,87,0.00,,CLR,0.00,VWS V14.01,2013-06-16 00:12:00,
2013-06-15 19:14:00,73.6,70.0,30.00,NNW,334,9.4,11.9,88,0.00,,CLR,0.00,VWS V14.01,2013-06-16 00:14:00,
2013-06-15 19:16:00,73.4,69.8,30.00,NE,48,11.9,12.5,88,0.00,,OVC037,0.00,VWS V14.01,2013-06-16 00:16:00,
2013-06-15 19:18:00,73.2,69.6,30.00,NE,36,10.8,12.5,88,0.00,,CLR,0.00,VWS V14.01,2013-06-16 00:18:00,
2013-06-15 19:20:00,73.0,69.9,30.00,NNE,25,4.4,17.2,90,0.00,,CLR,0.00,VWS V14.01,2013-06-16 00:20:00,
2013-06-15 19:21:00,73.0,69.9,30.00,WNW,295,0.0,10.5,90,0.00,,BKN040,0.00,VWS V14.01,2013-06-16 00:21:00,
2013-06-15 19:22:00,73.0,69.9,30.00,NNE,31,3.9,10.5,90,0.00,,CLR,0.00,VWS V14.01,2013-06-16 00:22:00,
2013-06-15 19:24:00,72.9,69.7,30.00,North,353,7.2,8.7,90,0.00,,CLR,0.00,VWS V14.01,2013-06-16 00:24:00,
2013-06-15 19:26:00,72.9,69.7,30.00,NNE,32,10.8,11.3,90,0.00,,BKN040,0.00,VWS V14.01,2013-06-16 00:26:00,
2013-06-15 19:28:00,72.7,69.9,30.00,NNW,345,7.8,11.3,91,0.00,,CLR,0.00,VWS V14.01,2013-06-16 00:28:00,
2013-06-15 19:30:00,72.7,69.9,30.00,NNE,27,7.8,11.3,91,0.00,,CLR,0.00,VWS V14.01,2013-06-16 00:30:00,
2013-06-15 19:31:00,72.7,69.9,30.00,NNE,27,12.5,13.1,91,0.00,,BKN040,0.00,VWS V14.01,2013-06-16 00:31:00,
2013-06-15 19:32:00,72.7,69.9,30.00,NNE,19,10.0,13.1,91,0.00,,CLR,0.00,VWS V14.01,2013-06-16 00:32:00,
2013-06-15 19:34:00,72.7,69.9,30.00,North,4,6.7,10.5,91,0.00,,CLR,0.00,VWS V14.01,2013-06-16 00:34:00,
2013-06-15 19:36:00,72.5,69.8,30.00,NE,50,7.8,13.7,91,0.00,,BKN040,0.00,VWS V14.01,2013-06-16 00:36:00,
2013-06-15 19:38:00,72.5,69.8,30.00,NE,45,5.0,13.7,91,0.00,,CLR,0.00,VWS V14.01,2013-06-16 00:38:00,
2013-06-15 19:40:00,72.5,70.2,30.00,NNE,32,7.8,8.1,92,0.00,,CLR,0.00,VWS V14.01,2013-06-16 00:40:00,
2013-06-15 19:41:00,72.3,70.0,30.00,North,1,6.7,8.1,92,0.00,,SCT035,0.00,VWS V14.01,2013-06-16 00:41:00,
2013-06-15 19:42:00,72.3,70.0,30.00,NNE,14,3.9,8.1,92,0.00,,CLR,0.00,VWS V14.01,2013-06-16 00:42:00,
2013-06-15 19:44:00,72.3,70.0,30.00,NNE,29,5.0,9.9,92,0.00,,CLR,0.00,VWS V14.01,2013-06-16 00:44:00,
2013-06-15 19:46:00,72.3,70.0,30.00,North,357,3.3,7.6,92,0.00,,SCT035,0.00,VWS V14.01,2013-06-16 00:46:00,
2013-06-15 19:48:00,72.3,70.0,30.00,NE,46,4.4,7.6,92,0.00,,CLR,0.00,VWS V14.01,2013-06-16 00:48:00,
2013-06-15 19:50:00,72.1,69.8,30.00,NNE,33,10.0,10.5,92,0.00,,CLR,0.00,VWS V14.01,2013-06-16 00:50:00,
2013-06-15 19:51:00,72.1,69.8,30.00,North,2,2.8,10.5,92,0.00,,SCT035,0.00,VWS V14.01,2013-06-16 00:51:00,
2013-06-15 19:52:00,72.1,69.8,30.00,NNE,14,7.2,10.5,92,0.00,,CLR,0.00,VWS V14.01,2013-06-16 00:52:00,
2013-06-15 19:54:00,72.1,69.8,30.00,NNW,345,7.2,7.6,92,0.00,,CLR,0.00,VWS V14.01,2013-06-16 00:54:00,
2013-06-15 19:56:00,72.0,69.6,30.03,West,276,5.0,6.4,92,0.00,,SCT035,0.00,VWS V14.01,2013-06-16 00:56:00,
2013-06-15 19:58:00,72.0,69.6,30.03,West,276,0.0,5.2,92,0.00,,CLR,0.00,VWS V14.01,2013-06-16 00:58:00,
2013-06-15 20:00:00,72.0,69.6,30.03,WNW,284,3.3,5.8,92,0.00,,CLR,0.00,VWS V14.01,2013-06-16 01:00:00,
2013-06-15 20:01:00,71.8,69.5,30.03,WNW,297,0.0,5.8,92,0.00,,FEW120,0.00,VWS V14.01,2013-06-16 01:01:00,
2013-06-15 20:02:00,71.8,69.5,30.03,WNW,298,0.0,4.1,92,0.00,,CLR,0.00,VWS V14.01,2013-06-16 01:02:00,
2013-06-15 20:06:00,71.8,69.5,30.03,WNW,286,3.9,5.2,92,0.00,,CLR,0.00,VWS V14.01,2013-06-16 01:06:00,
2013-06-15 20:07:00,71.8,69.5,30.03,WNW,289,7.8,8.1,92,0.00,,FEW120,0.00,VWS V14.01,2013-06-16 01:07:00,
2013-06-15 20:08:00,71.8,69.5,30.03,WNW,302,5.0,8.1,92,0.00,,CLR,0.00,VWS V14.01,2013-06-16 01:08:00,
2013-06-15 20:12:00,71.6,69.3,30.03,West,279,0.0,11.3,92,0.01,,FEW120,0.01,VWS V14.01,2013-06-16 01:12:00,
2013-06-15 20:16:00,71.4,69.5,30.03,West,259,3.9,6.4,94,0.01,,CLR,0.01,VWS V14.01,2013-06-16 01:16:00,
2013-06-15 20:17:00,71.4,69.5,30.03,West,269,5.0,6.4,94,0.01,,FEW120,0.01,VWS V14.01,2013-06-16 01:17:00,
2013-06-15 20:18:00,71.4,69.5,30.03,West,270,0.0,5.2,94,0.01,,CLR,0.01,VWS V14.01,2013-06-16 01:18:00,
2013-06-15 20:20:00,71.2,69.3,30.03,WNW,287,5.0,7.6,94,0.01,,CLR,0.01,VWS V14.01,2013-06-16 01:20:00,
2013-06-15 20:22:00,71.1,69.2,30.03,WNW,292,5.0,8.1,94,0.01,,BKN036,0.01,VWS V14.01,2013-06-16 01:22:00,
2013-06-15 20:24:00,70.9,69.4,30.03,WNW,293,7.2,8.1,95,0.01,,CLR,0.01,VWS V14.01,2013-06-16 01:24:00,
2013-06-15 20:26:00,70.7,69.2,30.03,WNW,284,3.9,8.1,95,0.01,,CLR,0.01,VWS V14.01,2013-06-16 01:26:00,
2013-06-15 20:27:00,70.7,69.2,30.03,NNW,339,3.3,4.1,95,0.01,,BKN036,0.01,VWS V14.01,2013-06-16 01:27:00,
2013-06-15 20:30:00,70.5,69.4,30.03,North,353,3.3,7.6,96,0.01,,CLR,0.01,VWS V14.01,2013-06-16 01:30:00,
2013-06-15 20:32:00,70.5,69.4,30.03,North,357,3.9,5.2,96,0.01,,BKN036,0.01,VWS V14.01,2013-06-16 01:32:00,
2013-06-15 20:34:00,70.3,69.3,30.03,NNW,341,0.0,5.2,96,0.05,,CLR,0.05,VWS V14.01,2013-06-16 01:34:00,
2013-06-15 20:36:00,70.3,69.3,30.03,North,3,0.0,0.0,96,0.05,,CLR,0.05,VWS V14.01,2013-06-16 01:36:00,
2013-06-15 20:37:00,70.3,69.7,30.03,North,10,0.0,0.0,98,0.05,,BKN036,0.05,VWS V14.01,2013-06-16 01:37:00,
2013-06-15 20:38:00,70.3,69.7,30.03,North,7,0.0,0.0,98,0.05,,CLR,0.05,VWS V14.01,2013-06-16 01:38:00,
2013-06-15 20:40:00,70.2,69.5,30.03,WNW,301,4.4,5.2,98,0.05,,CLR,0.05,VWS V14.01,2013-06-16 01:40:00,
2013-06-15 20:42:00,70.2,69.5,30.03,North,357,0.0,4.7,98,0.09,,BKN036,0.09,VWS V14.01,2013-06-16 01:42:00,
2013-06-15 20:44:00,70.2,69.9,30.03,North,357,0.0,0.0,99,0.09,,CLR,0.09,VWS V14.01,2013-06-16 01:44:00,
2013-06-15 20:46:00,70.0,69.7,30.03,WSW,243,5.0,5.2,99,0.09,,CLR,0.09,VWS V14.01,2013-06-16 01:46:00,
2013-06-15 20:47:00,70.0,69.7,30.03,West,262,3.9,5.2,99,0.09,,BKN036,0.09,VWS V14.01,2013-06-16 01:47:00,
2013-06-15 20:50:00,70.0,69.7,30.03,West,262,0.0,2.9,99,0.09,,CLR,0.09,VWS V14.01,2013-06-16 01:50:00,
2013-06-15 20:52:00,70.0,70.0,30.03,West,262,0.0,4.1,100,0.09,,BKN036,0.09,VWS V14.01,2013-06-16 01:52:00,
2013-06-15 20:54:00,70.0,70.0,30.03,West,262,3.3,3.5,100,0.13,,CLR,0.13,VWS V14.01,2013-06-16 01:54:00,
2013-06-15 20:56:00,69.8,69.8,30.03,West,262,2.8,4.7,100,0.13,,CLR,0.13,VWS V14.01,2013-06-16 01:56:00,
2013-06-15 20:57:00,69.8,69.8,30.03,West,262,0.0,4.7,100,0.13,,BKN036,0.13,VWS V14.01,2013-06-16 01:57:00,
2013-06-15 21:00:00,69.8,69.8,30.03,West,262,0.0,0.0,100,0.13,,CLR,0.13,VWS V14.01,2013-06-16 02:00:00,
2013-06-15 21:02:00,69.8,69.8,30.03,West,262,0.0,0.0,100,0.13,,BKN048,0.13,VWS V14.01,2013-06-16 02:02:00,
2013-06-15 21:04:00,69.8,69.8,30.03,West,262,0.0,0.0,100,0.13,,CLR,0.13,VWS V14.01,2013-06-16 02:04:00,
2013-06-15 21:06:00,69.6,69.6,30.03,West,262,0.0,0.0,100,0.13,,CLR,0.13,VWS V14.01,2013-06-16 02:06:00,
2013-06-15 21:07:00,69.6,69.6,30.03,West,262,0.0,0.0,100,0.15,,BKN048,0.15,VWS V14.01,2013-06-16 02:07:00,
2013-06-15 21:08:00,69.6,69.6,30.03,West,262,0.0,0.0,100,0.15,,CLR,0.15,VWS V14.01,2013-06-16 02:08:00,
2013-06-15 21:10:00,69.6,69.6,30.03,West,262,0.0,0.0,100,0.15,,CLR,0.15,VWS V14.01,2013-06-16 02:10:00,
2013-06-15 21:12:00,69.6,69.6,30.03,West,262,0.0,0.0,100,0.22,,BKN048,0.23,VWS V14.01,2013-06-16 02:12:00,
2013-06-15 21:16:00,69.6,69.6,30.03,West,262,3.9,4.1,100,0.22,,CLR,0.23,VWS V14.01,2013-06-16 02:16:00,
2013-06-15 21:17:00,69.4,69.4,30.03,East,98,4.4,5.2,100,0.22,,BKN048,0.23,VWS V14.01,2013-06-16 02:17:00,
2013-06-15 21:18:00,69.4,69.4,30.03,East,98,4.4,5.2,100,0.22,,CLR,0.23,VWS V14.01,2013-06-16 02:18:00,
2013-06-15 21:22:00,69.4,69.4,30.03,ESE,112,4.4,7.0,100,0.22,,BKN049,0.23,VWS V14.01,2013-06-16 02:22:00,
2013-06-15 21:26:00,69.4,69.4,30.03,ESE,118,10.8,11.3,100,0.22,,CLR,0.23,VWS V14.01,2013-06-16 02:26:00,
2013-06-15 21:27:00,69.4,69.4,30.00,ESE,103,10.0,11.3,100,0.22,,BKN049,0.23,VWS V14.01,2013-06-16 02:27:00,
2013-06-15 21:28:00,69.4,69.4,30.00,ENE,72,6.7,11.3,100,0.22,,CLR,0.23,VWS V14.01,2013-06-16 02:28:00,
2013-06-15 21:32:00,69.4,69.4,30.00,ENE,59,6.7,9.9,100,0.22,,CLR,0.23,VWS V14.01,2013-06-16 02:32:00,
2013-06-15 21:33:00,69.4,69.4,30.00,ESE,109,5.0,9.9,100,0.22,,BKN049,0.23,VWS V14.01,2013-06-16 02:33:00,
2013-06-15 21:34:00,69.4,69.4,30.00,NE,42,13.0,13.7,100,0.22,,CLR,0.23,VWS V14.01,2013-06-16 02:34:00,
2013-06-15 21:38:00,69.4,69.4,30.00,ENE,75,6.7,13.7,100,0.18,,BKN049,0.23,VWS V14.01,2013-06-16 02:38:00,
2013-06-15 21:40:00,69.4,69.4,30.00,ENE,71,4.4,9.9,100,0.18,,CLR,0.23,VWS V14.01,2013-06-16 02:40:00,
2013-06-15 21:42:00,69.4,69.4,29.97,East,101,7.2,8.1,100,0.18,,CLR,0.23,VWS V14.01,2013-06-16 02:42:00,
2013-06-15 21:43:00,69.4,69.4,29.97,SE,134,0.0,8.1,100,0.14,,BKN049,0.23,VWS V14.01,2013-06-16 02:43:00,
2013-06-15 21:44:00,69.4,69.4,29.97,East,83,6.1,9.9,100,0.14,,CLR,0.23,VWS V14.01,2013-06-16 02:44:00,
2013-06-15 21:48:00,69.4,69.4,29.97,ESE,117,4.4,8.1,100,0.14,,BKN049,0.23,VWS V14.01,2013-06-16 02:48:00,
2013-06-15 21:50:00,69.4,69.4,29.97,NE,39,5.0,10.5,100,0.14,,CLR,0.23,VWS V14.01,2013-06-16 02:50:00,
2013-06-15 21:52:00,69.4,69.4,29.97,NNE,20,9.4,10.5,100,0.14,,CLR,0.23,VWS V14.01,2013-06-16 02:52:00,
2013-06-15 21:53:00,69.4,69.4,29.97,East,96,2.8,9.9,100,0.14,,BKN049,0.23,VWS V14.01,2013-06-16 02:53:00,
2013-06-15 21:58:00,69.4,69.4,29.94,East,90,7.2,7.6,100,0.10,,BKN049,0.23,VWS V14.01,2013-06-16 02:58:00,
2013-06-15 22:00:00,69.4,69.4,29.94,East,90,3.3,9.9,100,0.10,,CLR,0.23,VWS V14.01,2013-06-16 03:00:00,
2013-06-15 22:02:00,69.4,69.4,29.94,NE,41,7.8,8.1,100,0.10,,CLR,0.23,VWS V14.01,2013-06-16 03:02:00,
2013-06-15 22:03:00,69.4,69.4,29.94,NNE,22,6.1,8.1,100,0.10,,BKN120,0.23,VWS V14.01,2013-06-16 03:03:00,
2013-06-15 22:06:00,69.4,69.4,29.94,SE,142,3.9,8.7,100,0.10,,CLR,0.23,VWS V14.01,2013-06-16 03:06:00,
2013-06-15 22:08:00,69.6,69.6,29.94,East,100,8.9,9.3,100,0.08,,BKN120,0.23,VWS V14.01,2013-06-16 03:08:00,
2013-06-15 22:10:00,69.6,69.6,29.94,NNE,32,0.0,11.3,100,0.08,,CLR,0.23,VWS V14.01,2013-06-16 03:10:00,
2013-06-15 22:12:00,69.6,69.6,29.97,SSE,154,10.8,11.3,100,0.08,,CLR,0.23,VWS V14.01,2013-06-16 03:12:00,
2013-06-15 22:13:00,69.6,69.6,29.97,North,357,0.0,11.3,100,0.08,,BKN120,0.23,VWS V14.01,2013-06-16 03:13:00,
2013-06-15 22:14:00,69.6,69.6,29.97,North,9,5.0,11.3,100,0.08,,CLR,0.23,VWS V14.01,2013-06-16 03:14:00,
2013-06-15 22:16:00,69.8,69.8,29.97,East,79,0.0,5.2,100,0.00,,CLR,0.23,VWS V14.01,2013-06-16 03:16:00,
2013-06-15 22:18:00,69.8,69.8,29.97,SE,129,3.3,7.0,100,0.00,,OVC120,0.23,VWS V14.01,2013-06-16 03:18:00,
2013-06-15 22:20:00,69.8,69.8,29.97,NNE,20,5.0,7.6,100,0.00,,CLR,0.23,VWS V14.01,2013-06-16 03:20:00,
2013-06-15 22:22:00,69.8,69.8,29.97,ENE,71,0.0,8.1,100,0.00,,CLR,0.23,VWS V14.01,2013-06-16 03:22:00,
2013-06-15 22:23:00,69.8,69.8,29.97,NNE,14,0.0,8.1,100,0.00,,OVC120,0.23,VWS V14.01,2013-06-16 03:23:00,
2013-06-15 22:24:00,69.8,69.8,29.97,NNE,14,0.0,8.1,100,0.00,,CLR,0.23,VWS V14.01,2013-06-16 03:24:00,
2013-06-15 22:26:00,69.8,69.8,29.97,North,357,0.0,4.1,100,0.00,,CLR,0.23,VWS V14.01,2013-06-16 03:26:00,
2013-06-15 22:28:00,69.8,69.8,29.97,North,357,0.0,0.0,100,0.00,,OVC120,0.23,VWS V14.01,2013-06-16 03:28:00,
2013-06-15 22:30:00,69.8,69.8,29.97,North,0,0.0,0.0,100,0.00,,CLR,0.23,VWS V14.01,2013-06-16 03:30:00,
2013-06-15 22:32:00,69.6,69.6,29.97,North,0,0.0,0.0,100,0.00,,CLR,0.23,VWS V14.01,2013-06-16 03:32:00,
2013-06-15 22:33:00,69.6,69.6,29.97,SW,230,0.0,0.0,100,0.00,,OVC120,0.23,VWS V14.01,2013-06-16 03:33:00,
2013-06-15 22:34:00,69.6,69.6,29.97,SW,229,5.0,5.2,100,0.00,,CLR,0.23,VWS V14.01,2013-06-16 03:34:00,
2013-06-15 22:36:00,69.6,69.6,29.97,SW,219,5.0,5.8,100,0.00,,CLR,0.23,VWS V14.01,2013-06-16 03:36:00,
2013-06-15 22:38:00,69.6,69.6,29.97,SSW,203,6.1,6.4,100,0.00,,OVC120,0.23,VWS V14.01,2013-06-16 03:38:00,
2013-06-15 22:40:00,69.8,69.8,29.97,SSW,198,7.2,8.1,100,0.00,,CLR,0.23,VWS V14.01,2013-06-16 03:40:00,
2013-06-15 22:42:00,69.8,69.8,30.03,SSW,195,4.4,7.6,100,0.00,,CLR,0.23,VWS V14.01,2013-06-16 03:42:00,
2013-06-15 22:43:00,69.8,69.8,30.03,SSW,194,9.4,9.9,100,0.00,,OVC120,0.23,VWS V14.01,2013-06-16 03:43:00,
2013-06-15 22:44:00,69.8,69.8,30.03,South,191,5.0,10.8,100,0.00,,CLR,0.23,VWS V14.01,2013-06-16 03:44:00,
2013-06-15 22:46:00,69.8,69.8,30.03,South,176,9.4,9.9,100,0.00,,CLR,0.23,VWS V14.01,2013-06-16 03:46:00,
2013-06-15 22:48:00,69.8,69.8,30.03,South,169,10.3,14.2,100,0.00,,OVC120,0.23,VWS V14.01,2013-06-16 03:48:00,
2013-06-15 22:50:00,69.8,69.8,30.03,SSW,213,10.0,14.2,100,0.00,,CLR,0.23,VWS V14.01,2013-06-16 03:50:00,
2013-06-15 22:52:00,69.8,69.8,30.03,SSW,192,6.7,10.5,100,0.00,,CLR,0.23,VWS V14.01,2013-06-16 03:52:00,
2013-06-15 22:53:00,69.6,69.6,30.03,SW,231,7.8,9.9,100,0.00,,OVC120,0.23,VWS V14.01,2013-06-16 03:53:00,
2013-06-15 22:54:00,69.6,69.6,30.03,SW,229,6.1,9.9,100,0.00,,CLR,0.23,VWS V14.01,2013-06-16 03:54:00,
2013-06-15 22:56:00,69.6,69.6,30.03,SSW,201,7.2,9.9,100,0.00,,CLR,0.23,VWS V14.01,2013-06-16 03:56:00,
2013-06-15 22:58:00,69.6,69.6,30.03,SSW,198,10.8,11.3,100,0.00,,OVC120,0.23,VWS V14.01,2013-06-16 03:58:00,
2013-06-15 23:00:00,69.6,69.6,30.03,SSW,207,6.7,11.3,100,0.00,,CLR,0.23,VWS V14.01,2013-06-16 04:00:00,
2013-06-15 23:01:00,69.6,69.6,30.03,SSW,213,8.3,10.5,100,0.00,,OVC120,0.23,VWS V14.01,2013-06-16 04:01:00,
2013-06-15 23:02:00,69.6,69.6,30.03,WSW,243,10.0,10.5,100,0.00,,OVC120,0.23,VWS V14.01,2013-06-16 04:02:00,
2013-06-15 23:03:00,69.6,69.6,30.03,SSE,159,3.9,10.5,100,0.00,,OVC120,0.23,VWS V14.01,2013-06-16 04:03:00,
2013-06-15 23:04:00,69.6,69.6,30.03,SW,224,3.9,10.5,100,0.00,,CLR,0.23,VWS V14.01,2013-06-16 04:04:00,
2013-06-15 23:06:00,69.6,69.6,30.03,SSW,198,4.4,10.8,100,0.00,,CLR,0.23,VWS V14.01,2013-06-16 04:06:00,
2013-06-15 23:08:00,69.6,69.6,30.03,SSW,204,6.7,10.8,100,0.00,,OVC120,0.23,VWS V14.01,2013-06-16 04:08:00,
2013-06-15 23:10:00,69.6,69.6,30.03,SW,223,8.9,11.3,100,0.00,,CLR,0.23,VWS V14.01,2013-06-16 04:10:00,
2013-06-15 23:12:00,69.6,69.6,30.03,South,170,5.0,9.3,100,0.00,,CLR,0.23,VWS V14.01,2013-06-16 04:12:00,
2013-06-15 23:13:00,69.6,69.6,30.03,SW,226,2.8,6.4,100,0.00,,OVC120,0.23,VWS V14.01,2013-06-16 04:13:00,
2013-06-15 23:14:00,69.6,69.6,30.03,SW,221,6.7,7.0,100,0.00,,CLR,0.23,VWS V14.01,2013-06-16 04:14:00,
2013-06-15 23:16:00,69.6,69.6,30.03,SSE,149,2.8,8.7,100,0.00,,CLR,0.23,VWS V14.01,2013-06-16 04:16:00,
2013-06-15 23:18:00,69.6,69.6,30.03,SSE,156,6.7,10.5,100,0.00,,BKN120,0.23,VWS V14.01,2013-06-16 04:18:00,
2013-06-15 23:20:00,69.6,69.6,30.03,SE,138,2.8,10.5,100,0.00,,CLR,0.23,VWS V14.01,2013-06-16 04:20:00,
2013-06-15 23:22:00,69.6,69.6,30.03,SE,131,4.4,5.2,100,0.00,,CLR,0.23,VWS V14.01,2013-06-16 04:22:00,
2013-06-15 23:23:00,69.6,69.6,30.03,SE,124,0.0,5.2,100,0.00,,BKN120,0.23,VWS V14.01,2013-06-16 04:23:00,
2013-06-15 23:24:00,69.6,69.6,30.03,SSE,163,4.4,5.2,100,0.00,,CLR,0.23,VWS V14.01,2013-06-16 04:24:00,
2013-06-15 23:26:00,69.6,69.6,30.03,SSE,162,0.0,7.0,100,0.00,,CLR,0.23,VWS V14.01,2013-06-16 04:26:00,
2013-06-15 23:28:00,69.6,69.6,30.03,SE,141,3.9,5.2,100,0.00,,BKN120,0.23,VWS V14.01,2013-06-16 04:28:00,
2013-06-15 23:30:00,69.6,69.6,30.03,SSE,151,5.0,7.0,100,0.00,,CLR,0.23,VWS V14.01,2013-06-16 04:30:00,
2013-06-15 23:32:00,69.6,69.6,30.03,ESE,119,5.0,8.1,100,0.00,,CLR,0.23,VWS V14.01,2013-06-16 04:32:00,
2013-06-15 23:33:00,69.6,69.6,30.03,SSE,162,4.4,7.0,100,0.00,,BKN120,0.23,VWS V14.01,2013-06-16 04:33:00,
2013-06-15 23:34:00,69.6,69.6,30.03,SSE,152,4.4,7.6,100,0.00,,CLR,0.23,VWS V14.01,2013-06-16 04:34:00,
2013-06-15 23:36:00,69.6,69.6,30.03,SSE,160,6.1,7.6,100,0.00,,CLR,0.23,VWS V14.01,2013-06-16 04:36:00,
2013-06-15 23:38:00,69.6,69.6,30.03,East,95,6.7,8.1,100,0.00,,BKN120,0.23,VWS V14.01,2013-06-16 04:38:00,
2013-06-15 23:40:00,69.6,69.6,30.03,ESE,116,9.4,9.9,100,0.00,,CLR,0.23,VWS V14.01,2013-06-16 04:40:00,
2013-06-15 23:42:00,69.6,69.6,30.00,SSE,158,3.3,9.9,100,0.00,,CLR,0.23,VWS V14.01,2013-06-16 04:42:00,
2013-06-15 23:43:00,69.8,69.8,30.00,South,178,0.0,5.2,100,0.00,,BKN120,0.23,VWS V14.01,2013-06-16 04:43:00,
2013-06-15 23:44:00,69.8,69.8,30.00,South,172,0.0,5.2,100,0.00,,CLR,0.23,VWS V14.01,2013-06-16 04:44:00,
2013-06-15 23:46:00,69.8,69.8,30.00,South,170,5.0,7.6,100,0.00,,CLR,0.23,VWS V14.01,2013-06-16 04:46:00,
2013-06-15 23:48:00,69.8,69.8,30.00,ESE,119,6.7,8.1,100,0.00,,CLR,0.23,VWS V14.01,2013-06-16 04:48:00,
2013-06-15 23:49:00,69.8,69.8,30.00,SE,125,0.0,8.1,100,0.00,,BKN120,0.23,VWS V14.01,2013-06-16 04:49:00,
2013-06-15 23:50:00,69.8,69.8,30.00,East,98,4.4,7.0,100,0.00,,CLR,0.23,VWS V14.01,2013-06-16 04:50:00,
2013-06-15 23:52:00,69.8,69.8,30.00,East,95,3.9,5.2,100,0.00,,CLR,0.23,VWS V14.01,2013-06-16 04:52:00,
2013-06-15 23:54:00,69.8,69.8,30.00,ESE,116,3.9,7.6,100,0.00,,BKN120,0.23,VWS V14.01,2013-06-16 04:54:00,
2013-06-15 23:56:00,69.8,69.8,30.00,SE,124,3.3,4.7,100,0.00,,CLR,0.23,VWS V14.01,2013-06-16 04:56:00,
2013-06-15 23:58:00,69.8,69.8,30.00,SSE,164,7.8,8.1,100,0.00,,CLR,0.23,VWS V14.01,2013-06-16 04:58:00,
2013-06-15 23:59:00,69.8,69.8,30.00,South,172,3.9,8.1,100,0.00,,BKN120,0.23,VWS V14.01,2013-06-16 04:59:00,